GEFSNE_500_meanwind_000.txt.gz
Wind_Speed
71 75 80 77 73 74 78 80 81 80 77 74 72 69 67 68 71 69 69 68 68 65 63 61 56 54 55 55 54 52 51 52 54 53 52 51 52 51
59 61 65 68 69 69 69 71 74 77 77 77 75 73 72 71 71 75 75 73 69 67 69 68 65 65 62 62 61 60 60 60 59 58 55 55 55 54
57 64 65 56 59 62 65 69 70 70 73 76 76 75 74 75 75 75 78 77 74 71 70 71 69 68 68 68 67 66 65 64 62 62 60 60 60 59
53 59 68 61 56 57 60 67 69 63 68 75 76 74 72 74 75 75 76 75 74 73 72 72 70 69 69 70 70 70 69 68 67 65 64 63 62 60
40 52 61 64 58 48 50 59 65 60 60 67 68 68 67 69 70 71 72 73 72 71 70 69 68 68 68 68 69 70 70 69 67 65 62 60 60 59
36 45 46 50 58 52 48 50 53 54 49 52 54 57 60 59 61 64 66 67 67 67 67 66 66 66 66 67 70 71 70 68 66 64 63 61 60 59
23 38 36 44 51 47 46 48 49 47 46 50 53 54 55 56 58 59 62 62 63 64 64 65 65 65 66 68 69 69 67 66 64 63 63 62 62 60
20 31 33 36 45 47 43 43 44 43 43 45 52 56 55 56 56 56 56 57 60 63 63 65 66 66 65 64 63 62 60 60 62 62 62 61 61 61
25 31 31 29 37 44 42 40 41 37 38 45 48 54 58 59 57 56 55 54 53 53 57 59 60 60 60 59 60 61 62 63 63 62 60 59 60 62
35 33 34 30 27 34 38 40 44 44 42 45 45 50 56 56 53 51 49 48 47 49 51 51 51 53 54 54 54 55 56 58 58 59 60 60 60 61
42 41 39 35 32 34 37 42 43 41 43 46 45 47 50 50 54 55 52 50 49 48 49 51 52 52 53 55 57 56 54 55 58 60 62 63 62 61
40 43 45 44 43 42 42 44 47 46 45 48 49 48 48 49 49 50 51 51 49 47 47 49 51 52 53 53 54 56 56 57 57 59 60 62 62 61
39 41 45 47 46 46 47 47 50 51 49 50 51 50 50 51 52 51 50 50 48 46 45 46 50 51 51 50 51 50 51 53 56 56 57 60 62 63
41 40 41 45 50 51 51 48 49 52 53 54 53 52 52 51 52 51 50 50 50 49 49 49 51 51 50 51 55 55 52 50 50 52 52 52 52 52
45 44 41 42 45 48 49 47 48 50 51 52 53 53 52 51 51 50 51 51 52 52 52 53 55 54 52 50 51 55 55 53 50 47 44 41 42 43
48 48 46 44 45 45 47 48 49 48 48 48 49 50 51 50 49 48 48 47 47 48 49 51 55 57 56 52 50 50 50 48 45 40 39 40 40 38
50 51 50 49 47 46 46 48 51 50 48 47 48 48 48 48 49 49 46 43 42 44 47 49 52 53 50 44 43 43 44 44 41 39 40 41 40 40
53 52 53 52 51 50 49 50 51 51 51 51 50 50 49 48 48 47 47 45 41 39 41 41 43 45 45 45 43 43 44 43 40 38 37 36 35 35
52 53 53 55 56 55 54 53 52 52 52 53 51 50 49 48 47 46 45 43 40 39 38 40 40 39 40 43 45 46 47 44 43 40 36 34 34 33
43 51 54 56 57 58 58 57 56 55 54 53 52 50 48 48 47 46 44 41 39 40 39 39 41 41 42 41 43 46 46 45 43 41 38 37 36 36
29 39 49 55 58 59 60 60 60 59 58 56 55 53 51 50 49 47 45 43 41 40 41 41 42 43 43 43 44 46 47 46 42 37 35 34 33 32
19 25 34 45 54 59 61 62 62 62 61 60 59 57 56 55 53 50 48 46 44 43 42 42 43 44 43 43 44 45 44 41 36 35 35 34 32 30
13 16 21 29 39 50 58 62 64 65 64 64 64 63 63 61 58 56 54 51 49 47 45 43 42 42 42 41 40 39 38 37 37 37 36 34 33 31

GEFSNE_500_meanwind_006.txt.gz
Wind_Speed
62 70 76 79 82 84 86 86 84 82 81 78 76 75 75 75 74 73 72 71 68 66 65 64 62 61 61 61 59 58 55 53 53 53 53 52 48 46
47 54 61 68 74 79 82 84 85 84 83 81 80 76 75 75 74 74 74 74 73 71 69 68 66 64 64 64 62 61 59 58 57 58 56 53 50 50
39 42 46 51 58 66 74 79 82 84 83 83 83 80 77 77 75 74 74 74 74 73 73 72 71 69 68 67 66 64 62 60 56 54 53 52 52 52
39 40 41 43 47 53 61 70 77 81 83 83 85 84 81 79 78 77 75 74 74 74 73 72 71 70 69 67 66 66 64 62 60 60 57 54 55 55
41 42 42 42 43 46 51 58 67 75 79 81 82 85 83 80 78 78 79 77 75 73 72 71 70 70 71 71 70 70 68 66 67 69 65 61 60 59
43 44 44 44 44 45 47 50 55 62 69 73 74 79 82 80 77 75 78 80 78 76 74 72 70 70 71 72 73 74 73 72 71 71 70 68 66 65
43 44 45 46 45 46 48 50 52 55 59 63 64 68 75 76 76 74 74 76 77 77 76 74 70 69 70 71 72 74 74 75 77 77 76 74 73 72
43 43 43 44 44 43 44 45 48 52 56 60 62 64 68 69 70 71 71 74 75 78 77 76 75 73 72 72 71 72 74 76 78 79 79 79 78 78
42 41 40 40 39 38 38 39 43 51 54 53 55 57 60 65 67 67 68 70 71 72 73 74 75 75 76 76 75 74 74 75 76 77 78 78 78 78
40 40 38 36 35 36 38 41 43 50 54 54 56 56 56 56 60 63 64 65 67 68 69 69 69 70 72 73 74 74 74 74 75 75 76 77 77 78
42 41 39 37 38 41 42 42 45 50 54 56 56 55 55 57 58 59 61 60 62 64 65 65 65 66 67 69 70 71 72 73 74 74 75 76 76 77
44 44 43 41 41 43 43 42 44 48 53 54 54 53 53 54 56 58 60 59 58 58 58 59 60 61 62 63 65 68 69 70 71 73 75 76 76 76
45 46 46 46 44 43 43 43 43 45 47 48 49 50 51 52 52 52 53 55 56 56 55 55 56 56 58 58 59 60 62 64 66 68 70 70 70 69
46 46 47 48 48 46 44 44 44 44 44 44 45 46 48 51 53 53 53 54 56 57 57 56 56 56 56 56 57 57 57 57 58 59 59 60 60 61
45 46 46 48 50 50 48 46 44 44 45 46 45 44 46 49 50 52 53 54 55 57 58 58 58 57 57 56 55 55 55 55 55 54 53 54 54 56
43 46 46 47 48 50 50 50 48 46 47 48 48 47 46 47 49 50 52 53 53 52 53 54 55 56 57 57 56 55 53 53 52 53 53 53 54 55
39 43 46 47 47 47 48 50 51 51 50 51 51 50 50 49 49 49 50 51 51 51 49 49 50 53 55 56 56 55 54 53 52 53 53 53 52 51
33 40 44 47 48 49 48 48 49 51 54 56 55 54 53 53 52 51 51 51 51 51 49 48 48 50 53 55 55 54 53 52 51 52 52 53 52 50
25 33 41 46 48 50 50 50 48 48 51 55 58 58 57 56 55 55 55 56 55 53 51 49 48 48 49 50 51 51 50 50 51 52 53 53 53 52
18 23 32 41 47 50 51 51 50 49 49 50 54 58 59 58 57 56 58 59 58 56 53 51 49 49 48 48 48 48 47 48 49 50 52 53 53 52
14 17 22 31 41 48 50 52 52 52 50 49 49 51 54 56 57 57 57 59 58 56 53 51 49 48 47 46 46 45 44 44 45 46 47 48 49 49
12 14 17 21 30 41 48 51 52 53 53 51 49 47 48 50 51 52 53 54 54 52 50 48 47 47 46 45 44 44 43 43 42 42 41 42 43 45
9 10 12 15 20 28 40 48 51 53 54 53 51 49 47 47 47 48 49 49 49 49 47 46 45 45 44 43 42 42 41 40 39 38 37 38 40 41

GEFSNE_500_meanwind_012.txt.gz
Wind_Speed
47 45 44 46 55 71 88 96 96 92 87 83 78 75 73 69 70 74 75 73 72 71 69 66 63 61 58 56 54 51 48 47 45 45 47 46 47 49
44 42 40 42 46 57 75 90 96 95 91 86 82 79 76 71 67 68 72 72 72 72 71 68 65 62 60 59 57 54 52 50 49 48 47 47 45 43
41 39 38 38 41 47 60 77 89 94 93 88 85 82 79 76 71 66 67 68 67 69 70 69 67 65 63 61 60 58 56 54 53 52 51 50 48 46
39 38 36 36 37 40 48 62 77 88 91 90 87 84 82 80 77 71 68 67 65 65 66 67 67 66 65 64 62 61 59 57 56 55 54 53 51 49
37 37 35 35 35 36 42 51 64 76 85 87 86 85 83 82 79 76 72 69 67 64 63 64 65 65 65 65 64 62 60 59 58 57 56 55 54 52
36 36 35 34 34 35 38 44 53 64 74 80 82 82 82 82 80 76 74 71 68 65 63 62 62 63 64 64 63 62 61 60 58 56 55 55 55 55
35 36 36 35 35 35 36 39 46 54 62 69 74 76 78 80 79 76 73 70 67 66 64 63 62 61 62 62 63 63 62 61 59 57 56 56 56 55
34 35 35 35 35 36 36 37 40 46 53 60 65 69 72 75 76 75 72 70 68 66 64 64 63 62 60 59 59 60 61 61 61 60 59 58 57 57
34 35 35 36 36 36 36 37 38 40 46 51 57 63 67 70 71 71 71 69 67 66 65 64 63 62 61 59 58 58 58 59 60 60 59 60 60 59
34 35 35 35 36 37 37 37 38 39 41 45 49 53 58 63 66 68 68 67 65 64 65 63 62 62 61 60 59 58 58 58 57 56 57 56 56 57
34 36 36 36 36 37 38 38 39 39 40 41 43 47 51 55 59 62 64 64 64 64 63 62 62 62 62 62 62 61 60 60 59 58 58 58 60 61
34 37 38 37 37 37 37 38 39 39 39 38 38 40 43 48 53 57 59 59 59 60 61 62 63 63 63 63 63 63 63 64 63 64 64 64 65 66
33 38 40 39 38 38 37 37 37 38 38 37 37 36 37 42 48 52 54 57 58 58 59 61 62 61 61 61 63 63 64 64 64 65 66 66 67 68
32 38 42 42 41 40 38 37 36 36 36 36 36 35 35 37 43 49 52 55 57 59 59 60 61 60 59 60 60 61 62 64 65 66 67 67 67 67
29 38 42 44 44 43 41 39 38 37 36 37 37 36 36 38 42 47 52 54 56 60 61 61 62 63 62 62 62 62 61 62 63 64 66 67 67 67
24 34 41 45 46 45 44 42 40 39 38 39 39 39 40 42 46 48 51 53 54 57 59 58 58 58 59 61 62 62 61 61 60 60 60 62 62 63
18 28 37 43 46 47 46 45 43 41 41 41 41 42 43 46 48 49 52 52 51 52 52 51 49 50 51 52 52 53 54 55 55 56 56 56 57 57
13 21 31 40 45 47 48 47 45 44 43 43 43 43 44 46 48 49 49 50 50 50 48 48 47 47 46 45 45 45 46 47 49 50 51 51 51 50
8 15 24 34 42 46 48 49 48 47 46 45 45 45 44 45 46 47 46 47 48 50 49 49 48 48 47 47 47 47 47 47 48 48 48 48 47 47
5 9 17 27 36 43 46 48 49 49 48 47 46 46 46 45 45 45 46 46 47 48 48 48 49 50 50 50 49 50 51 51 51 50 49 48 47 47
7 5 10 18 29 38 44 46 48 49 50 50 49 48 48 48 47 47 47 47 47 48 49 49 49 50 51 51 50 50 51 51 51 51 50 48 47 45
21 9 4 9 18 29 38 44 47 48 49 51 51 51 50 50 50 49 49 49 49 49 49 49 49 50 50 50 50 49 49 49 49 49 47 45 43 42
42 29 15 4 7 16 28 38 44 47 48 50 52 52 52 52 52 51 52 51 51 50 50 49 50 50 50 50 49 48 47 47 47 46 44 43 41 41

GEFSNE_500_meanwind_018.txt.gz
Wind_Speed
41 45 49 56 65 72 73 71 66 67 79 92 101 102 100 98 95 89 83 78 75 72 73 75 74 71 68 65 61 60 58 55 51 48 48 53 55 55
38 41 46 51 59 67 72 72 67 64 67 80 95 102 101 98 95 91 87 82 78 76 74 74 74 72 69 67 63 60 57 55 52 51 51 53 56 57
35 37 42 47 53 61 68 71 68 62 60 67 82 97 100 97 93 92 89 86 81 78 76 75 74 72 70 68 66 63 60 56 52 51 50 51 53 56
31 34 38 43 48 55 63 68 68 64 58 59 71 85 96 95 91 90 89 87 85 81 78 75 74 73 70 68 67 65 63 60 58 54 50 48 49 50
27 30 34 39 44 49 57 63 65 64 59 56 62 74 86 89 86 85 87 88 86 84 81 76 74 73 71 69 67 65 64 62 59 57 54 51 48 47
23 27 30 35 39 44 51 57 61 61 60 56 57 66 78 83 82 81 83 86 85 84 83 79 76 74 71 70 67 65 64 63 60 58 57 56 53 50
19 24 27 31 35 39 45 51 55 56 57 56 56 63 74 81 81 79 79 82 84 83 82 81 78 75 73 71 69 66 65 63 61 59 58 57 56 53
17 22 25 29 32 35 40 45 49 50 52 53 54 61 72 81 82 80 78 80 82 81 80 80 80 77 74 72 69 67 66 64 62 60 60 59 58 56
16 21 25 28 31 33 36 39 42 43 45 47 51 58 70 84 84 80 78 79 80 81 80 78 78 76 74 72 70 68 67 66 64 63 61 60 59 57
16 21 25 28 30 32 33 35 36 37 38 40 44 52 66 83 90 83 77 76 77 80 80 77 76 75 73 71 69 67 67 66 66 65 64 62 61 59
17 22 26 29 30 31 32 32 32 33 34 35 38 45 58 77 93 92 82 76 76 78 79 76 74 72 71 69 67 66 65 65 66 66 65 64 62 60
16 22 27 29 30 31 30 29 29 29 30 31 34 39 48 65 86 95 91 82 78 77 77 74 70 69 69 68 64 63 62 62 62 63 63 63 62 60
15 22 26 29 30 30 29 28 27 26 27 28 31 34 41 53 69 84 91 88 81 78 75 71 68 66 66 66 65 62 60 59 59 59 59 60 60 59
13 20 25 28 29 29 28 27 26 25 25 27 30 33 37 44 53 65 77 84 83 79 74 71 67 64 63 62 62 61 60 58 57 56 56 56 56 56
10 17 24 27 28 28 28 27 26 25 25 26 28 30 34 39 46 54 63 73 77 77 73 68 64 60 58 58 58 57 57 57 56 55 54 54 54 54
5 13 21 27 28 28 28 27 27 26 26 26 26 27 30 35 40 48 55 62 68 70 70 66 63 60 57 56 55 54 54 52 52 53 54 55 56 55
1 8 17 24 28 29 28 28 27 27 26 26 26 27 28 31 35 42 50 56 61 64 65 65 63 61 59 57 56 55 54 54 54 54 54 56 56 56
6 3 11 20 26 29 29 29 28 28 28 27 28 28 28 29 33 39 46 52 57 60 62 63 61 59 58 56 56 55 54 54 55 56 56 57 58 58
12 4 4 14 22 28 30 30 29 29 29 28 29 30 29 30 31 36 43 50 55 59 61 62 62 61 58 57 57 56 55 56 57 58 59 58 59 59
24 13 4 6 16 24 30 32 32 31 30 30 30 31 31 31 32 34 40 47 53 58 61 63 62 61 59 58 58 59 59 58 58 57 57 58 58 58
38 26 14 3 7 17 26 32 34 33 32 32 32 33 34 33 34 34 37 42 50 56 61 63 62 61 60 59 58 59 59 59 58 56 56 55 54 52
45 40 28 16 4 7 18 28 34 36 36 34 34 35 36 36 36 36 37 38 43 51 57 59 60 60 59 58 57 56 55 55 55 54 52 51 50 48
44 42 39 30 18 5 7 19 29 35 38 38 37 37 38 39 39 39 39 39 41 44 49 53 55 57 57 57 55 54 52 50 49 49 49 48 46 44

GEFSNE_500_meanwind_024.txt.gz
Wind_Speed
33 37 39 42 43 45 47 50 59 70 79 82 83 89 102 108 108 105 103 99 95 91 86 81 80 80 78 74 67 62 58 54 52 50 49 49 46 43
23 28 33 37 39 41 44 47 53 65 73 79 79 82 91 103 107 105 103 101 97 93 87 82 79 77 77 76 73 66 63 59 52 51 49 47 45 43
14 21 27 31 34 37 40 44 49 59 68 75 77 77 83 94 104 105 103 101 98 94 89 84 78 76 75 75 74 70 65 62 57 52 50 48 47 45
8 15 21 26 29 32 36 40 45 54 64 69 74 74 76 85 96 103 103 100 98 95 91 85 80 76 74 74 73 72 68 64 60 54 50 48 47 44
7 13 17 20 24 27 31 36 41 49 59 65 71 72 71 76 87 98 102 99 97 95 92 88 82 77 75 73 73 72 69 65 62 58 54 50 47 45
8 11 14 17 20 23 27 31 37 44 54 61 67 69 68 70 78 90 100 100 97 94 92 89 84 80 76 72 71 71 69 67 65 62 59 53 47 45
7 8 10 12 15 19 23 28 33 41 49 57 64 66 65 65 69 81 93 99 98 93 91 88 83 79 76 72 70 70 69 67 65 64 60 55 50 47
6 6 7 9 13 16 19 24 30 37 46 54 61 63 62 61 63 70 83 94 97 94 91 87 82 78 76 73 71 69 67 65 65 64 62 59 54 51
5 3 5 9 12 15 17 21 27 34 42 51 58 60 60 57 57 62 73 86 93 94 92 87 83 79 75 73 72 69 65 63 63 63 62 60 57 54
3 2 6 9 12 15 17 21 25 31 39 46 53 57 57 55 54 57 64 75 85 89 90 86 83 80 77 74 71 69 67 65 63 63 62 62 60 58
4 3 8 11 13 16 18 21 24 29 36 43 50 54 55 53 51 54 59 67 74 82 85 84 83 79 76 74 72 70 68 67 65 63 63 62 62 60
5 4 9 12 14 17 19 21 24 28 34 40 46 51 53 52 49 50 55 61 68 75 80 81 80 76 75 74 72 70 69 68 66 64 63 63 62 61
7 5 9 12 15 17 19 21 23 27 32 38 42 46 50 51 48 47 51 56 63 68 71 74 75 74 74 75 74 72 70 69 67 66 64 63 62 61
9 6 9 12 15 16 18 20 23 26 30 34 39 42 46 48 47 47 49 53 57 63 66 69 69 70 71 72 74 74 72 70 68 66 64 63 62 61
11 7 9 12 14 16 18 19 21 24 27 31 34 38 42 45 46 47 50 54 57 63 66 68 68 68 67 68 71 73 73 71 70 67 64 62 61 60
15 8 8 10 13 15 17 18 20 22 24 26 29 33 37 41 44 47 51 54 59 64 67 68 69 66 65 65 69 71 72 70 69 68 66 63 61 60
20 11 7 9 12 14 16 17 18 20 21 23 25 28 31 35 39 44 49 55 61 66 68 66 66 65 62 61 65 70 71 70 67 65 65 63 61 60
27 16 8 7 10 13 14 16 17 18 19 20 22 23 26 29 33 38 44 52 60 66 69 67 66 64 61 58 60 63 67 68 67 64 62 61 61 60
36 24 12 5 7 11 14 15 16 17 18 19 20 20 21 23 26 31 38 47 56 64 70 69 66 63 60 57 57 61 63 66 66 66 64 63 62 61
42 33 21 10 3 9 13 15 16 17 18 19 19 20 20 20 21 24 30 39 49 59 68 71 68 63 59 58 56 57 60 62 64 64 64 63 61 60
42 39 32 20 8 4 11 15 16 17 18 19 20 20 20 19 19 20 24 31 40 50 61 68 68 65 61 60 57 55 56 58 59 60 61 61 59 58
39 39 37 31 20 8 4 12 17 18 20 20 21 21 21 20 19 20 22 27 34 43 52 60 65 65 63 61 57 55 54 54 56 57 57 57 55 54
36 35 35 34 29 21 8 4 14 19 21 22 22 23 23 22 21 20 22 25 31 39 46 52 58 62 63 61 59 55 53 52 54 55 55 55 54 53

GEFSNE_500_meanwind_030.txt.gz
Wind_Speed
18 14 8 6 16 29 41 50 55 58 60 62 63 70 83 95 103 110 116 116 115 112 108 104 99 94 89 84 79 76 75 74 72 70 67 65 65 63
15 11 8 6 11 21 31 41 49 54 56 60 61 65 76 88 96 103 111 115 114 112 109 105 101 96 90 84 80 76 74 73 72 70 68 66 65 65
15 12 9 8 10 16 25 34 42 48 53 56 59 62 70 80 90 97 105 112 114 113 111 107 103 99 92 87 80 75 73 73 74 71 69 67 66 65
17 15 12 11 11 15 20 28 35 42 48 52 56 59 65 73 83 91 99 107 113 113 112 109 106 102 97 90 81 77 75 72 73 73 70 68 66 64
17 14 12 11 12 14 18 23 29 36 42 47 51 55 59 66 75 84 93 102 110 113 112 111 108 105 101 94 86 81 76 70 69 69 66 66 65 64
16 12 10 9 10 12 16 20 24 30 36 41 46 50 54 61 69 78 87 98 107 112 113 112 110 108 105 100 92 85 79 72 67 64 59 57 59 61
15 10 7 5 7 8 11 16 21 26 31 36 40 45 50 56 65 74 82 92 102 109 112 112 110 109 107 102 99 91 84 78 72 68 59 52 51 53
14 10 7 3 1 4 7 12 17 21 26 31 36 40 45 52 60 69 77 87 97 107 110 111 109 108 107 103 100 94 86 80 74 70 63 55 51 48
15 12 8 5 3 3 5 9 13 18 22 27 31 36 42 49 57 65 73 82 92 103 108 108 107 104 104 103 101 97 87 80 75 70 67 61 55 51
16 13 11 8 6 5 5 7 10 14 19 24 28 33 40 47 54 61 68 75 85 96 104 105 104 102 100 99 97 94 89 83 77 72 69 64 56 51
17 14 12 11 9 7 6 6 7 11 16 21 26 32 39 46 53 59 64 70 78 89 99 102 100 96 94 93 92 88 85 80 75 71 68 64 58 53
18 15 13 12 11 9 8 7 6 9 13 18 25 31 39 46 52 56 60 65 72 82 93 98 98 93 89 88 86 84 81 77 72 68 66 63 60 56
18 15 13 12 11 10 9 8 7 7 10 16 23 31 39 45 50 54 56 60 66 76 86 93 95 92 87 85 82 81 78 74 71 68 64 62 60 58
19 15 13 11 11 11 10 9 8 7 9 14 22 30 38 44 48 51 52 54 60 68 78 87 91 90 87 83 81 79 76 73 70 67 64 62 61 59
21 16 12 11 10 10 10 10 9 8 8 13 21 29 36 42 46 48 48 50 54 61 69 79 85 86 84 82 80 79 77 74 71 68 66 64 62 60
24 17 12 10 9 9 9 10 10 9 9 13 20 28 35 40 44 45 44 46 49 55 62 70 78 82 81 78 76 76 77 76 72 69 67 64 61 60
30 21 14 10 9 8 8 9 9 10 11 14 19 26 33 38 41 42 42 42 45 50 57 65 72 76 78 75 72 72 74 74 73 71 68 64 61 61
37 26 17 11 8 7 7 8 8 10 11 14 19 24 30 35 39 40 40 40 42 47 53 60 66 71 73 71 69 68 71 73 73 72 69 65 63 61
39 32 22 14 8 6 6 6 8 9 11 14 18 22 28 33 36 38 39 39 40 45 50 55 60 66 71 70 68 67 67 70 71 70 68 65 64 63
37 35 29 19 11 6 4 5 7 9 11 14 17 21 25 30 33 36 37 37 38 42 47 51 56 62 67 69 67 67 67 67 69 69 69 67 65 63
35 35 33 26 17 9 3 4 6 8 11 13 16 19 23 26 30 33 35 36 38 41 45 49 53 58 62 67 67 67 67 66 67 67 67 66 66 64
33 33 33 31 23 14 6 2 5 8 11 13 16 18 20 23 26 30 33 36 38 41 45 50 52 55 59 64 66 66 66 66 66 66 66 65 64 62
32 32 32 33 29 21 11 3 4 8 11 14 16 18 20 21 23 26 30 33 37 41 45 49 53 56 59 61 63 64 64 65 65 65 65 65 63 61

GEFSNE_500_meanwind_036.txt.gz
Wind_Speed
38 34 30 27 24 22 20 17 14 19 31 47 60 68 71 72 71 72 77 86 97 109 119 123 123 121 117 112 108 104 99 94 88 82 76 72 70 67
37 33 29 26 22 21 19 17 15 17 26 40 54 64 68 69 67 66 67 75 87 100 112 120 122 121 119 115 110 106 102 97 91 85 78 73 70 67
37 33 29 25 21 19 18 17 16 17 23 34 47 58 64 66 65 62 61 66 78 91 105 115 120 121 120 117 113 108 104 99 93 87 81 75 70 69
37 34 30 26 22 19 17 16 15 16 20 29 40 52 60 63 62 60 58 60 69 83 97 110 117 120 121 118 115 110 106 101 96 90 83 77 72 70
38 34 31 27 23 20 16 15 14 15 17 24 34 45 54 59 60 59 56 56 62 75 90 104 113 118 120 119 116 112 108 102 97 92 86 78 73 70
38 35 32 28 24 21 17 14 12 13 15 20 29 39 47 54 57 56 55 53 57 69 83 98 109 115 118 118 116 112 108 104 99 94 89 82 75 70
38 35 32 29 25 22 19 15 11 10 12 16 24 33 41 48 52 53 52 51 53 63 77 92 104 111 116 117 116 113 108 104 100 96 91 85 78 72
37 35 32 29 26 24 21 17 13 9 8 12 19 27 35 41 47 49 50 50 51 60 73 86 100 108 113 115 115 112 108 104 100 96 92 87 79 72
35 33 31 29 27 25 22 19 15 11 6 8 15 22 29 36 41 44 46 46 49 56 68 81 95 103 110 113 113 111 107 103 99 95 91 87 81 74
34 31 29 28 27 25 23 20 17 12 7 4 10 17 24 31 36 40 42 43 47 54 65 77 90 99 106 110 111 110 105 102 97 93 90 86 81 75
34 30 28 27 26 25 23 21 18 14 9 3 6 13 21 27 32 36 38 41 46 53 63 74 85 95 102 107 109 108 104 100 95 91 88 84 80 74
35 31 28 26 26 25 24 22 19 16 11 5 2 9 16 23 29 33 36 41 46 53 62 72 81 92 99 104 105 106 103 98 93 89 86 82 76 70
36 31 28 25 24 24 23 22 19 17 13 7 1 6 13 20 26 31 36 41 46 53 61 70 78 88 96 101 103 103 101 96 92 88 83 79 74 69
36 31 27 24 23 23 22 21 20 17 14 9 4 4 11 17 24 31 36 40 46 52 59 67 75 84 93 98 100 99 98 95 91 87 82 77 71 68
39 33 28 24 23 22 21 20 20 17 14 11 7 5 9 15 22 30 35 40 45 52 58 64 70 79 88 94 96 95 93 92 90 86 82 77 70 66
42 36 30 25 22 21 20 19 18 17 14 12 9 7 9 15 22 30 36 40 44 50 56 61 67 74 81 88 92 91 89 87 86 84 80 74 69 65
43 39 33 26 22 19 19 18 17 16 14 12 10 9 11 16 22 30 35 39 42 47 53 58 64 71 78 83 86 86 84 83 84 84 81 73 67 64
43 41 35 28 22 19 17 16 16 15 13 12 11 11 12 17 23 30 35 39 41 44 49 54 60 67 73 80 84 82 80 79 81 81 80 74 67 62
41 40 38 31 23 19 16 14 14 13 12 11 11 12 14 18 23 29 34 37 39 42 47 52 57 64 71 77 81 81 78 78 77 77 77 74 68 63
39 39 38 35 27 19 15 13 11 11 11 10 10 12 14 18 22 27 31 35 38 42 45 49 55 62 68 73 78 78 76 74 74 72 71 70 67 63
38 37 37 35 31 23 15 11 9 8 8 8 9 11 14 18 21 25 29 33 38 42 45 49 54 60 64 69 74 76 74 73 70 66 64 64 64 62
36 36 36 35 33 27 18 11 6 5 5 6 8 10 13 16 20 23 27 32 37 42 46 50 55 59 63 67 70 72 72 72 70 67 63 59 59 59
35 34 34 34 34 30 22 14 6 2 2 5 8 10 13 16 19 22 25 29 34 40 44 49 54 59 63 65 68 70 69 68 68 67 65 62 59 57

GEFSNE_500_meanwind_042.txt.gz
Wind_Speed
59 54 51 48 47 46 45 43 39 30 20 22 25 26 27 34 49 66 80 90 100 109 118 126 131 133 132 128 125 120 116 111 105 100 95 89 81 71
57 52 49 47 45 45 44 42 40 34 23 19 23 25 25 29 41 58 72 83 93 102 110 119 127 131 132 130 126 122 118 113 108 102 97 92 86 76
56 51 47 45 44 43 43 41 40 36 28 20 21 23 23 27 36 50 64 76 85 93 102 111 120 127 131 131 128 124 120 116 110 105 100 95 89 80
54 49 45 43 42 42 41 40 39 36 31 23 19 20 21 23 31 44 57 68 77 85 93 102 112 121 127 130 129 126 122 118 113 108 102 97 92 84
54 48 44 41 40 40 40 39 37 35 32 26 19 19 18 20 26 38 51 62 70 77 84 93 103 113 122 128 129 127 124 119 115 110 106 101 95 89
53 48 43 40 39 39 38 38 36 33 31 27 21 18 17 17 23 34 46 56 63 70 76 84 94 104 114 123 127 127 125 122 118 113 108 103 98 92
53 48 43 40 38 38 38 37 36 33 30 27 22 17 15 15 21 31 42 52 58 64 70 77 85 96 107 117 125 127 126 123 119 115 110 106 101 96
53 48 43 39 37 37 37 36 35 33 30 27 23 18 13 13 19 29 39 48 54 59 64 69 77 86 97 108 118 124 126 124 121 117 112 108 103 98
53 48 42 39 36 35 35 35 34 32 30 26 22 17 12 11 18 27 37 45 51 55 59 62 70 77 88 100 111 120 125 124 122 119 114 110 106 101
52 48 42 38 36 33 32 33 33 31 29 25 21 16 11 10 16 26 35 43 49 52 54 56 63 70 81 92 104 115 122 124 122 120 116 112 108 104
51 49 43 38 35 32 31 31 31 30 29 25 21 15 10 9 16 25 34 41 46 49 51 52 56 63 74 85 96 107 117 122 122 120 117 114 109 105
49 48 44 39 35 32 30 30 30 29 27 24 20 14 8 8 15 24 33 39 44 46 48 49 52 58 66 78 89 100 110 119 121 120 118 115 111 107
48 47 44 38 34 31 30 29 29 28 26 23 19 13 7 7 14 22 31 37 41 44 46 47 49 53 61 71 84 94 104 113 119 119 117 115 112 107
48 46 44 39 33 31 29 28 28 27 25 23 18 13 6 5 13 21 30 36 39 42 43 44 46 50 57 67 78 89 98 107 115 117 116 115 112 108
47 45 44 41 34 30 29 27 26 26 25 22 17 12 6 2 11 19 27 34 37 39 41 42 44 48 55 64 73 84 93 101 110 115 115 113 111 108
46 45 44 42 37 32 29 27 25 24 23 20 17 12 7 2 9 17 24 31 35 37 39 40 43 47 53 62 71 80 89 96 104 110 112 111 109 106
44 44 43 41 38 33 28 26 24 23 22 19 16 12 7 4 8 15 21 27 32 35 38 40 42 46 52 61 69 77 84 91 98 105 108 107 106 104
43 43 41 40 36 33 28 24 22 21 20 18 15 12 8 5 9 15 19 23 27 31 35 39 42 45 51 60 67 73 81 86 92 99 102 102 101 100
42 42 41 39 36 33 29 24 21 19 18 16 14 11 8 7 11 15 19 21 24 28 32 35 38 43 51 58 64 71 76 81 87 92 97 96 96 96
40 40 40 38 35 32 29 24 20 17 16 14 12 10 7 8 11 15 19 21 25 29 31 33 37 43 50 56 62 69 74 78 83 87 91 90 89 89
38 38 38 37 35 32 29 25 20 16 13 12 11 9 7 7 10 13 17 20 24 29 32 34 36 42 49 56 62 67 72 76 79 83 85 86 86 86
36 36 36 36 35 32 29 25 20 15 11 9 8 7 6 6 9 14 18 22 25 29 31 33 35 40 47 54 62 67 70 72 76 78 80 82 83 82
34 34 35 35 34 32 29 25 20 15 11 7 6 6 6 7 10 14 18 21 24 28 31 35 37 42 47 54 62 69 73 71 72 75 78 79 79 77

GEFSNE_500_meanwind_048.txt.gz
Wind_Speed
80 77 76 75 73 71 70 68 66 60 51 48 50 52 53 50 46 42 34 30 32 45 59 70 80 90 99 107 116 124 130 132 130 126 121 115 109 101
78 75 73 73 70 69 67 65 63 61 55 49 48 49 50 49 46 42 36 30 29 39 55 69 78 88 97 105 114 121 128 132 131 127 123 118 112 104
77 74 72 71 69 67 65 63 60 59 56 49 48 48 48 47 45 42 37 32 29 35 51 66 76 86 96 104 113 121 128 133 133 129 124 120 115 107
75 72 70 69 67 65 64 61 58 57 55 51 47 47 46 46 43 41 38 34 29 32 45 63 75 85 95 103 112 119 127 133 134 130 125 121 117 111
73 70 68 68 65 63 62 60 57 54 53 51 48 46 45 44 42 39 36 33 30 29 40 58 72 83 93 101 110 119 126 133 134 131 127 123 118 112
71 68 67 66 64 62 60 58 56 53 51 50 48 45 44 43 42 39 34 32 29 28 35 51 68 81 91 100 107 116 125 132 135 132 128 124 120 114
69 66 64 63 62 61 60 59 55 52 50 50 48 45 44 43 42 39 34 30 27 26 31 45 62 77 88 97 105 113 122 130 134 132 129 125 121 116
67 64 62 62 61 59 58 57 55 52 50 49 48 46 44 43 41 38 33 29 25 25 28 39 56 70 83 93 101 109 119 127 132 132 129 126 122 118
65 63 61 60 59 57 56 55 52 50 49 49 47 45 43 41 39 36 31 27 23 22 24 33 48 62 76 87 97 105 114 124 130 131 130 127 123 119
63 61 59 58 57 56 54 52 50 48 47 46 45 43 42 40 37 33 28 23 20 19 20 28 41 54 68 80 92 101 109 120 127 130 129 127 124 120
60 59 58 56 55 54 53 51 48 45 44 43 43 42 39 37 34 30 24 20 16 15 18 26 37 48 59 72 84 95 103 113 123 128 129 128 125 121
58 56 55 54 53 52 51 49 47 43 41 40 40 39 37 35 31 27 21 16 13 12 17 25 34 44 52 64 76 87 97 107 117 124 128 127 125 122
55 54 53 52 51 50 49 48 46 42 39 39 38 36 34 31 28 23 18 13 9 12 18 26 34 42 50 57 68 80 90 101 112 121 125 127 125 123
53 52 51 50 49 48 47 45 44 41 38 37 36 34 32 29 25 20 15 10 7 12 19 26 34 41 48 53 61 72 82 94 106 116 122 125 125 123
51 50 49 48 48 47 45 43 42 39 37 35 33 32 29 26 22 17 12 7 7 13 20 27 34 40 46 51 56 65 75 87 100 112 119 124 125 123
49 48 48 47 46 46 44 42 41 38 35 33 31 29 27 24 19 14 9 5 7 13 21 28 34 39 44 49 54 60 69 80 94 106 116 122 124 123
47 46 45 45 44 44 42 41 39 36 34 31 28 27 25 21 17 13 7 3 8 14 21 27 33 38 42 46 51 56 64 74 86 100 111 119 123 122
44 44 43 42 42 41 40 38 37 34 31 28 26 24 22 19 15 11 6 2 7 14 20 26 32 35 39 42 47 52 59 68 80 93 107 116 121 121
42 42 41 40 40 40 38 37 35 32 29 26 23 21 19 18 14 10 5 2 6 13 19 24 29 34 36 40 45 51 57 65 75 87 101 111 117 119
40 40 39 39 39 38 37 35 33 31 27 24 22 19 17 15 13 10 5 2 6 12 17 22 27 31 35 39 44 49 56 62 71 81 95 106 113 117
38 38 37 37 37 37 36 34 32 29 26 22 20 17 15 13 11 9 6 1 4 10 15 19 23 27 32 37 43 49 54 60 68 77 88 100 108 114
35 36 35 35 35 35 34 33 31 28 25 22 19 17 14 12 10 8 6 1 4 8 11 15 19 23 27 34 40 48 55 60 67 75 85 95 103 110
33 34 33 33 34 34 33 32 30 27 24 21 17 15 12 10 9 7 4 1 2 6 9 11 15 18 23 30 39 47 55 61 67 74 81 90 98 103

GEFSNE_500_meanwind_054.txt.gz
Wind_Speed
67 67 67 68 70 71 72 73 72 71 70 71 74 75 75 75 74 73 69 64 61 58 55 53 52 49 47 46 48 54 61 70 77 87 100 116 128 132
67 67 68 68 69 71 72 72 72 73 72 71 72 72 72 72 71 69 66 62 59 56 54 52 50 46 44 43 46 52 60 68 74 83 95 111 125 131
66 67 67 68 69 70 71 71 72 73 74 71 70 70 69 69 67 65 62 60 58 55 53 51 48 45 42 41 44 50 58 67 74 81 91 107 123 130
66 67 66 67 68 69 70 70 71 72 73 72 70 68 66 65 64 61 59 58 56 53 51 50 48 44 40 40 43 50 58 67 74 81 90 104 121 129
65 65 65 66 67 68 69 69 70 71 71 72 69 66 63 62 61 59 57 56 54 52 50 48 47 43 39 39 43 50 59 68 76 82 90 101 118 129
63 63 64 65 66 67 67 68 69 69 69 70 68 65 62 61 60 58 56 54 52 51 49 47 45 40 38 38 43 51 60 69 77 84 91 101 117 128
61 62 63 64 65 66 66 66 67 67 67 68 66 64 61 60 58 57 55 52 49 49 48 45 43 38 36 37 42 52 62 70 80 86 92 101 115 128
60 61 62 63 64 64 65 65 65 65 66 66 64 62 60 58 57 55 54 51 47 46 47 42 41 37 34 35 41 53 63 73 82 88 93 102 114 128
59 59 60 61 62 62 63 62 61 62 63 63 61 60 58 56 55 53 51 49 46 43 44 40 38 35 32 33 40 53 65 76 84 89 94 103 114 127
57 58 59 60 60 61 60 59 58 58 59 59 58 57 55 54 53 52 49 46 42 41 41 38 35 33 29 29 38 53 65 77 85 91 96 103 114 127
57 57 57 58 58 59 59 57 56 56 56 55 54 54 53 51 51 50 47 44 40 38 38 36 32 29 25 26 35 52 66 78 86 91 97 104 114 126
56 55 56 57 57 57 57 55 54 54 53 52 51 50 49 48 48 47 45 41 39 36 35 33 29 26 21 23 33 50 66 78 87 91 96 105 114 125
54 54 55 55 55 55 54 53 53 52 51 49 48 47 46 45 45 43 41 39 36 34 32 30 26 22 17 19 30 47 64 76 86 92 97 105 114 125
52 53 53 53 53 53 52 51 50 50 48 47 46 44 43 43 42 40 37 36 34 32 29 27 23 19 14 15 26 43 61 74 84 90 97 104 114 124
50 51 51 50 50 50 49 48 48 47 45 44 43 41 40 40 39 36 33 33 31 29 26 23 20 16 10 13 24 40 57 71 82 89 97 104 113 123
48 48 48 47 47 47 46 46 45 44 43 42 40 38 37 36 36 33 31 30 28 26 23 20 17 13 8 12 23 36 52 67 79 87 96 104 112 122
46 45 45 44 44 44 44 43 43 42 41 40 38 35 34 34 33 31 29 27 24 22 20 17 14 10 6 10 21 34 48 62 75 85 94 103 111 121
43 42 42 42 41 41 41 41 41 40 39 38 35 33 32 31 30 28 27 25 22 19 16 13 11 7 5 9 20 31 43 57 70 81 91 100 109 119
39 39 40 39 39 38 38 38 38 38 36 35 33 31 30 29 27 26 24 22 20 16 13 10 8 5 4 8 17 29 41 53 66 77 87 97 106 116
37 37 37 36 36 36 36 36 36 35 34 32 30 29 29 28 26 25 23 21 17 14 10 8 5 4 4 8 15 25 37 50 63 74 84 93 102 113
34 33 33 33 33 33 34 34 34 33 31 30 28 28 27 26 23 22 21 18 15 12 9 6 4 4 6 10 16 23 33 45 58 70 80 90 99 110
30 30 30 30 31 31 32 32 32 30 29 27 26 26 25 23 21 20 18 15 12 9 7 5 4 6 9 12 17 23 31 41 54 66 77 87 96 106
27 27 27 28 28 29 29 30 29 28 27 25 24 24 22 20 18 17 15 12 10 7 6 5 6 8 11 14 18 24 31 39 49 61 72 81 91 101

GEFSNE_500_meanwind_060.txt.gz
Wind_Speed
68 68 68 68 68 68 69 69 70 69 68 67 69 69 70 69 69 69 70 70 71 72 73 74 76 77 78 79 80 80 81 82 83 83 83 83 84 85
67 68 68 68 68 69 70 70 70 70 68 66 67 68 69 69 69 69 70 70 71 72 74 75 76 77 77 78 79 79 79 78 78 78 78 78 78 78
67 68 68 68 68 69 69 69 69 69 68 66 67 68 68 69 69 69 70 71 72 73 74 75 76 76 77 77 76 76 75 73 73 72 72 72 71 71
67 68 67 68 67 68 68 67 67 68 68 66 66 67 67 68 68 69 70 71 71 72 73 73 73 74 74 73 73 71 70 69 68 68 67 67 66 66
66 66 66 66 66 67 67 66 66 67 67 66 65 66 67 68 69 69 70 70 71 71 71 71 71 70 70 69 69 68 67 66 65 64 64 63 62 61
65 64 64 65 66 66 66 66 66 67 67 67 65 65 66 67 69 69 69 69 68 68 68 68 67 67 66 66 65 64 63 62 61 60 60 58 57 57
63 63 64 65 65 65 65 66 66 67 66 66 65 66 65 67 68 69 69 67 66 65 66 65 65 63 62 62 61 60 60 59 58 57 56 55 54 54
62 64 64 64 64 64 65 66 66 66 65 65 65 65 64 66 67 67 67 66 64 61 64 61 61 60 59 58 57 57 56 56 55 54 53 51 50 51
62 64 64 63 64 65 65 65 64 64 64 64 64 63 63 64 65 65 64 63 61 59 61 59 58 58 56 55 55 55 54 53 52 51 50 47 48 50
62 62 62 62 62 62 62 62 61 61 61 62 61 61 62 62 63 62 61 60 58 55 58 58 55 54 53 52 53 53 52 51 49 47 45 44 46 50
60 60 60 59 59 59 59 58 58 57 58 59 59 59 59 59 59 59 58 58 55 51 54 57 54 52 50 49 50 51 49 47 46 43 41 42 46 50
59 58 57 57 57 57 56 55 54 55 56 56 56 56 56 56 56 56 56 56 53 50 50 53 52 52 48 45 47 47 47 44 42 39 38 40 46 51
56 55 54 54 54 53 53 53 53 53 53 53 53 53 53 52 52 53 53 53 51 48 48 50 50 50 50 44 42 44 44 41 38 34 34 39 46 52
53 52 52 51 51 51 51 51 51 51 50 50 50 49 49 49 49 49 49 48 47 47 47 49 49 48 47 44 40 40 40 37 32 30 32 39 46 52
52 51 50 49 48 48 48 48 48 47 47 47 46 46 47 47 46 46 45 45 44 44 46 47 47 46 45 42 39 38 35 31 27 25 30 39 46 54
49 48 47 46 45 45 44 45 45 45 44 44 44 44 44 44 43 43 42 42 41 41 43 45 44 43 41 39 37 35 32 27 22 23 30 39 48 56
46 45 44 44 43 42 42 42 42 42 42 42 42 42 42 41 40 40 40 40 40 40 39 41 41 39 38 36 33 31 27 22 18 23 31 38 47 56
44 43 42 41 40 40 40 40 39 39 39 39 39 39 39 38 37 37 38 39 39 38 38 37 36 35 34 31 30 27 22 16 15 24 31 39 48 59
41 39 38 37 37 37 37 36 36 36 36 37 37 37 36 35 35 35 36 38 38 36 35 34 33 31 28 26 25 22 16 11 15 25 33 41 50 60
37 36 36 35 35 34 33 32 33 33 34 34 35 34 34 33 33 33 35 36 35 33 32 30 30 27 24 21 19 17 12 9 15 26 35 43 52 61
34 33 33 33 32 30 29 29 30 31 32 32 32 32 31 31 32 33 33 34 32 30 28 26 26 24 20 18 16 12 7 9 17 29 38 46 54 62
31 31 30 29 27 26 27 27 28 29 30 30 30 30 30 30 31 31 32 30 28 26 25 23 22 20 17 15 12 9 5 11 19 30 40 47 55 63
29 28 27 25 25 24 25 26 27 28 28 28 28 28 28 29 30 30 29 27 25 23 22 20 19 17 14 11 9 6 5 12 21 30 41 49 57 65

GEFSNE_500_meanwind_066.txt.gz
Wind_Speed
70 70 70 70 70 70 71 71 71 69 66 65 66 66 68 69 69 69 68 67 66 66 66 66 66 66 66 67 68 68 69 69 70 71 72 72 73 74
67 68 68 69 70 70 70 69 70 70 68 64 66 67 68 68 68 68 67 67 67 66 67 67 67 68 68 68 68 68 69 70 71 72 73 74 75 76
67 67 67 68 68 68 69 69 69 70 68 65 66 66 67 67 67 68 67 66 66 66 67 67 68 68 69 69 70 70 70 71 72 73 74 74 76 77
67 67 66 67 67 67 68 68 69 69 69 67 67 67 66 67 68 67 68 68 67 67 67 68 68 69 69 70 71 71 72 73 73 74 75 76 77 78
67 67 67 67 66 66 67 68 68 69 69 68 67 67 66 66 67 68 69 69 68 68 68 69 69 70 70 71 72 72 73 74 75 75 76 77 78 79
67 67 67 67 67 67 67 67 67 67 67 66 65 65 65 66 68 68 68 69 69 69 69 69 70 70 71 71 72 72 73 73 74 76 76 77 78 78
66 66 66 66 66 66 66 65 65 65 65 65 64 64 64 65 66 67 68 68 68 68 68 68 69 69 69 70 71 72 72 73 74 75 75 76 76 77
64 64 64 64 64 64 64 64 63 63 63 63 63 63 63 65 66 66 67 67 66 66 67 66 67 67 67 69 70 71 71 72 73 73 73 74 74 75
60 60 60 60 61 62 62 62 62 62 62 62 62 62 63 63 64 65 65 65 64 64 65 64 65 65 66 67 67 68 68 69 70 71 71 72 72 73
58 58 58 58 59 60 60 60 60 60 60 61 60 60 60 61 62 63 64 64 63 62 64 64 63 64 64 64 65 65 65 67 68 69 69 70 70 71
56 57 57 57 57 58 57 56 56 57 58 59 59 58 58 59 60 61 61 62 61 60 62 63 62 63 62 61 60 61 62 64 65 66 67 67 67 67
55 55 55 55 55 55 55 54 54 55 56 57 56 56 56 57 58 59 60 60 60 59 58 60 60 61 59 56 56 57 59 61 63 64 64 64 64 66
53 53 52 53 52 52 52 53 53 54 55 55 54 55 55 56 56 57 58 58 58 56 56 58 57 58 58 54 51 52 55 57 59 61 62 63 63 65
50 49 49 50 50 51 51 52 52 53 53 53 52 52 52 53 53 54 55 55 55 54 54 56 56 56 55 52 50 50 52 55 57 58 59 60 61 62
47 47 47 48 49 49 50 50 50 51 51 50 49 49 50 51 51 51 51 52 51 51 52 53 54 53 52 51 50 50 51 52 54 56 57 58 58 58
45 45 45 46 47 47 47 47 48 48 48 48 47 47 48 48 47 48 48 49 48 47 49 51 51 51 50 50 51 50 50 51 52 54 55 55 54 53
42 42 43 44 44 45 45 45 46 46 46 46 45 45 44 44 44 45 45 46 45 45 44 46 48 49 49 50 50 49 49 50 51 52 52 50 47 45
38 39 40 40 41 42 43 43 43 42 42 42 42 42 42 42 42 43 44 44 43 42 42 43 44 46 47 47 48 48 48 49 48 47 47 44 38 36
37 37 37 38 39 40 40 40 39 39 40 40 40 40 40 39 40 40 40 41 40 40 40 41 43 44 44 42 41 45 45 44 42 40 39 36 30 27
36 36 36 37 37 38 37 37 37 37 38 38 37 37 37 37 36 36 37 37 37 37 37 39 41 42 43 41 38 37 40 39 36 33 30 27 23 21
34 35 35 35 35 35 35 35 35 35 35 34 34 34 34 33 33 34 34 35 35 35 36 36 39 40 39 38 34 32 34 34 31 27 24 20 18 17
32 32 32 32 32 33 32 32 32 32 31 31 30 30 31 31 31 32 32 33 34 35 35 35 35 35 35 34 31 29 29 28 26 23 19 16 14 13
31 30 31 30 30 30 29 29 29 28 28 28 28 29 29 30 30 31 32 33 33 33 32 31 31 31 31 30 29 27 26 24 21 17 14 13 12 13

GEFSNE_500_meanwind_072.txt.gz
Wind_Speed
72 73 73 74 75 76 76 77 77 75 72 71 73 73 74 75 74 75 75 74 74 73 72 71 70 69 68 68 68 68 67 68 68 67 67 67 66 66
76 76 76 76 77 78 78 78 79 78 74 70 72 73 74 74 74 74 74 74 73 72 71 70 69 69 68 68 68 68 68 67 67 67 67 67 67 67
79 79 79 79 80 79 79 79 79 78 76 71 72 73 73 73 73 73 72 71 71 70 70 69 69 68 68 68 68 68 67 68 68 68 68 68 67 67
81 82 81 82 81 81 80 79 78 78 76 73 72 72 72 72 72 71 70 70 70 69 69 70 69 69 69 69 69 69 69 69 69 69 69 69 68 68
83 83 82 82 81 80 79 78 77 77 76 74 71 71 71 71 71 71 70 70 70 70 70 70 70 70 69 69 69 69 69 69 70 70 70 69 69 69
83 82 81 80 79 78 77 75 74 73 72 71 69 68 69 69 69 69 69 69 69 69 69 69 68 68 68 68 68 68 68 68 70 71 71 71 71 71
78 77 76 74 73 72 71 70 69 69 68 67 65 65 65 66 66 67 68 68 68 68 67 67 67 67 67 66 66 67 67 68 68 69 70 71 71 71
70 69 68 67 67 67 67 66 66 65 64 63 62 62 62 63 64 65 66 66 65 65 66 66 66 65 65 66 66 67 67 67 68 69 69 70 71 72
63 62 62 61 62 62 62 62 61 61 61 60 60 59 60 60 62 63 63 63 63 63 63 62 63 64 65 65 65 66 67 67 68 68 68 69 70 71
56 56 55 55 55 56 56 56 56 57 58 58 57 56 56 57 58 58 59 59 60 60 61 61 61 62 63 63 64 65 65 65 65 66 67 68 68 69
50 50 50 50 50 51 51 52 52 52 54 55 55 54 54 54 54 55 55 56 56 57 59 59 58 60 60 61 61 62 62 63 64 65 66 67 68 69
45 46 47 47 46 47 47 47 47 48 49 50 51 51 51 50 51 51 52 54 55 55 56 57 56 58 58 58 59 60 61 62 63 64 65 66 68 69
42 42 42 43 43 43 43 43 43 44 45 45 46 46 47 48 49 51 52 52 53 53 54 55 56 56 57 56 56 57 59 60 61 62 64 65 67 68
39 38 38 38 38 38 39 40 40 41 41 42 43 44 45 47 49 50 51 51 51 52 53 54 54 55 56 55 54 54 56 57 58 59 60 62 64 65
37 36 35 35 36 36 37 37 38 39 40 41 42 43 45 46 48 49 50 50 51 51 51 52 53 54 54 54 54 53 53 53 55 56 58 61 62 63
35 35 34 34 34 34 35 36 37 38 40 41 41 43 44 45 46 47 48 49 49 49 50 51 52 53 53 53 52 50 51 52 53 55 57 58 59 59
33 33 33 33 33 34 35 36 37 38 39 40 40 41 42 43 44 45 46 46 46 46 46 48 50 51 51 50 50 49 50 51 51 53 54 53 53 55
33 32 32 33 33 33 34 35 37 38 38 39 39 40 40 41 42 42 42 43 43 43 44 46 48 49 48 47 47 47 47 48 49 50 51 52 50 51
33 33 33 32 32 33 33 34 35 36 37 37 37 38 38 38 38 39 39 40 41 41 42 43 44 46 45 44 43 45 46 47 48 49 49 50 49 49
33 32 31 31 32 32 33 33 34 34 34 34 34 34 34 34 35 36 37 38 38 39 39 40 42 44 44 43 41 41 44 46 46 46 47 47 47 47
32 31 31 31 32 32 32 32 32 32 32 32 31 31 31 31 32 34 35 35 36 36 37 38 40 42 42 41 39 38 40 43 45 45 44 44 44 42
31 31 31 31 31 31 31 31 30 30 30 30 30 30 30 31 31 32 33 33 34 35 35 36 38 40 40 40 38 37 38 40 43 43 42 42 39 35
30 30 30 30 30 30 29 29 29 29 29 29 29 29 30 30 30 30 31 32 32 33 34 35 36 37 38 38 38 37 37 38 39 38 37 37 34 30

GEFSNE_500_meanwind_078.txt.gz
Wind_Speed
79 81 83 84 85 87 88 89 91 91 89 88 89 89 88 87 86 87 86 85 85 84 83 82 81 80 79 78 77 76 75 74 73 72 71 70 69 68
83 84 85 87 88 89 91 92 93 95 94 90 92 93 93 92 90 90 89 88 86 85 83 82 80 79 79 78 77 76 76 74 73 73 72 70 69 68
86 87 88 89 90 90 91 92 93 93 94 90 91 92 93 92 91 89 87 86 85 83 81 80 78 77 76 76 75 75 75 74 74 73 72 71 70 69
88 88 88 89 89 88 88 88 87 87 87 85 82 83 84 85 84 83 82 81 80 79 77 76 76 75 74 74 74 73 73 73 73 72 72 71 70 69
87 87 86 85 83 81 80 79 77 76 76 75 72 71 73 73 75 75 74 74 74 74 73 73 73 72 71 71 71 71 71 71 70 70 70 69 69 68
85 83 81 78 75 73 71 69 68 67 67 66 64 63 64 65 66 66 67 67 68 68 69 69 69 69 69 70 69 69 69 69 69 69 68 68 68 68
78 75 72 69 66 64 63 61 61 62 61 61 59 57 57 58 58 59 60 61 62 63 63 64 64 65 66 67 67 67 67 68 68 68 68 69 68 68
70 66 62 60 58 57 57 57 57 56 56 55 54 52 51 52 53 53 55 56 56 57 58 58 59 60 60 61 62 63 64 65 65 66 68 68 68 68
61 57 55 53 52 52 52 53 52 52 52 51 49 47 46 47 48 49 50 50 51 53 54 55 56 56 57 57 58 59 61 63 64 65 65 66 66 66
54 52 49 48 48 48 48 48 47 47 47 47 46 44 43 43 44 45 47 48 48 49 51 51 52 54 54 55 56 58 59 61 62 63 63 63 64 64
48 46 45 44 44 45 45 43 42 42 43 42 42 41 40 41 42 42 43 45 45 46 47 48 49 51 52 52 54 55 56 57 58 59 60 61 62 63
45 44 43 42 42 43 42 41 40 39 38 38 38 38 38 38 39 39 40 41 42 43 43 45 47 49 49 50 51 52 53 54 55 56 58 59 60 62
42 41 41 41 41 41 40 39 37 36 36 35 35 36 37 37 37 38 39 39 40 40 41 43 45 46 47 47 49 50 51 52 53 54 55 56 58 59
42 40 39 39 39 38 38 37 37 36 35 35 34 34 35 36 36 37 38 39 39 40 41 42 44 45 46 46 47 48 50 51 52 53 54 55 56 57
41 39 38 37 37 36 36 36 36 35 35 34 34 34 35 35 36 37 38 39 40 41 42 43 44 45 46 46 47 48 49 50 51 52 54 55 56 57
39 37 36 36 36 36 35 35 35 35 35 35 35 35 35 35 36 37 37 38 39 40 41 42 43 44 45 46 47 47 48 49 50 52 53 55 56 57
36 35 35 35 35 35 34 33 33 34 34 34 34 34 34 35 35 36 37 37 38 38 39 40 42 43 44 45 46 46 48 49 50 52 54 54 55 56
35 34 33 33 33 32 32 32 32 33 34 34 33 33 34 34 35 35 35 35 36 36 37 38 40 41 42 42 43 44 46 47 48 50 51 52 51 53
34 33 32 32 31 31 32 32 32 32 32 32 32 33 33 33 32 33 33 33 34 34 35 36 38 39 39 39 39 42 43 44 45 46 48 49 49 49
33 32 31 31 31 31 31 31 31 31 32 32 32 32 31 31 31 32 32 33 33 33 34 35 36 38 39 38 38 38 41 43 44 45 46 47 47 47
31 31 31 30 31 31 30 30 31 31 31 31 31 31 31 31 31 32 32 32 32 32 33 34 35 36 37 37 37 37 39 42 43 44 45 45 45 45
30 30 30 30 31 30 30 31 31 31 31 31 30 30 30 30 30 30 31 31 31 31 32 32 33 34 35 35 36 36 37 40 42 43 44 44 44 42
29 30 30 30 30 30 30 30 30 30 30 30 30 30 30 29 29 29 30 30 30 30 31 31 32 33 34 36 36 37 37 39 41 42 42 43 43 42

GEFSNE_500_meanwind_084.txt.gz
Wind_Speed
69 71 73 75 78 79 81 84 86 87 84 83 84 86 88 89 90 91 91 91 91 90 91 91 93 93 94 93 93 92 91 90 89 87 86 84 82 81
72 75 77 78 80 82 84 86 87 89 89 85 85 85 86 86 86 87 87 87 86 86 85 85 86 87 89 89 90 90 90 89 88 87 86 85 83 82
76 78 79 81 82 84 85 85 86 86 87 83 81 81 82 81 80 79 77 76 75 74 73 73 73 74 76 78 81 82 84 85 85 85 85 83 82 81
78 80 81 82 83 83 83 83 82 82 83 81 76 74 73 73 71 69 67 66 64 63 63 63 64 65 66 67 70 72 74 77 79 80 80 81 80 79
80 81 82 83 82 81 80 79 78 78 77 75 70 67 65 63 62 60 58 58 57 57 57 57 58 58 59 60 61 63 65 68 70 72 73 75 76 77
80 81 82 82 80 79 77 75 73 71 69 67 64 59 57 55 55 53 52 52 52 52 53 53 53 52 53 53 55 56 58 60 62 65 67 68 70 71
80 81 80 79 77 74 72 69 67 65 62 59 56 52 50 49 49 49 48 47 47 48 48 48 48 48 48 48 49 50 52 53 56 58 61 63 65 66
80 79 76 74 71 69 67 64 62 59 56 53 50 48 46 46 45 45 45 44 43 43 44 43 43 43 44 44 45 46 46 48 50 53 55 58 60 62
79 75 72 69 66 64 61 58 55 53 51 49 47 46 44 44 43 43 43 42 40 39 39 38 38 39 40 41 41 42 43 44 46 48 51 53 56 58
74 71 68 64 62 59 56 53 50 48 47 47 46 44 43 42 42 41 40 39 37 36 37 36 35 36 38 38 39 39 40 41 41 43 46 49 51 55
69 66 63 59 56 54 52 49 46 45 45 44 43 42 41 41 40 40 39 38 36 34 34 34 34 35 35 36 37 38 38 39 40 40 42 45 47 50
64 60 57 55 52 50 48 46 44 42 42 41 40 40 39 39 38 38 38 38 36 33 33 34 34 35 34 34 35 36 37 38 39 40 41 42 45 47
59 55 52 49 47 46 45 43 42 41 40 38 38 37 37 37 37 37 37 37 36 35 33 33 33 34 34 33 33 35 36 36 37 38 40 41 42 44
54 50 47 45 44 43 42 42 41 40 39 37 36 35 35 35 35 35 35 35 35 35 34 34 33 33 34 33 32 33 34 35 36 37 38 40 42 43
49 46 44 43 42 41 41 40 40 39 37 36 35 35 34 33 33 33 34 35 35 35 35 35 34 34 34 33 33 33 33 34 35 36 38 40 41 42
45 43 42 41 41 40 39 39 38 36 35 35 34 33 33 33 33 33 34 34 35 35 35 35 35 34 34 34 33 33 34 34 35 36 37 39 40 42
42 40 39 38 37 37 37 36 35 35 34 34 33 33 33 33 33 34 34 34 34 34 33 34 33 33 33 32 32 32 33 33 35 36 37 38 39 40
40 39 37 36 36 35 34 33 33 33 33 33 33 33 32 33 33 33 33 34 33 33 32 32 32 32 32 32 32 32 32 33 34 35 36 37 38 40
39 38 36 35 34 33 33 32 32 32 31 32 32 32 32 32 33 33 33 33 32 32 32 32 33 33 32 31 32 33 33 33 33 34 34 35 36 38
38 37 35 34 33 32 32 31 31 31 31 31 32 32 32 32 32 32 32 31 31 31 31 31 31 31 31 31 30 31 32 33 33 34 35 36 36 37
36 35 34 33 32 32 31 31 30 30 31 31 31 31 31 31 31 31 30 30 30 30 30 29 30 30 30 29 29 29 31 33 33 34 34 35 36 36
35 34 33 32 31 31 31 30 30 30 30 30 30 29 29 30 30 30 30 30 30 30 29 29 29 29 29 29 28 28 30 31 33 33 33 34 35 35
33 32 31 31 30 30 30 29 29 29 29 28 27 27 27 28 28 29 29 30 30 30 30 29 29 29 29 29 29 29 30 31 32 33 33 34 34 34

GEFSNE_500_meanwind_090.txt.gz
Wind_Speed
57 59 61 63 65 67 70 72 75 75 74 73 75 76 77 79 80 82 83 84 85 86 86 86 86 86 86 86 87 88 90 91 91 92 92 92 91 90
60 62 63 66 68 70 72 74 76 79 79 77 78 79 80 82 82 83 83 83 82 82 82 81 81 80 80 80 80 81 82 83 85 86 87 88 89 90
62 64 66 68 70 72 74 75 77 78 80 78 79 81 83 83 83 82 82 80 79 78 77 76 75 75 74 74 73 73 73 74 75 76 77 79 80 82
64 66 68 70 72 74 75 76 77 79 81 81 80 81 82 82 82 80 78 76 74 72 71 70 68 67 66 65 64 64 63 63 64 65 66 68 69 71
67 69 70 72 74 75 76 77 79 81 82 83 82 81 80 79 77 75 73 71 69 66 64 62 61 59 58 57 56 55 55 55 55 56 57 58 60 62
69 71 72 74 75 76 77 79 81 82 83 83 82 79 76 73 72 70 67 64 61 59 57 55 53 52 51 50 49 49 49 49 50 51 52 53 55 57
70 72 74 75 77 78 80 81 82 83 82 81 78 74 70 68 66 63 60 57 55 53 51 49 48 47 46 45 45 45 45 45 46 46 47 48 49 51
73 74 76 77 79 81 82 83 83 82 80 77 73 69 65 62 60 57 54 51 48 47 46 44 44 42 42 43 42 42 41 41 42 43 44 44 45 46
76 77 78 80 82 82 82 81 80 78 75 72 67 62 58 55 53 50 48 46 43 42 42 40 40 39 39 39 39 39 38 38 38 39 39 41 42 43
79 80 82 82 82 82 80 78 74 70 67 64 60 55 52 49 47 46 44 42 40 39 39 37 36 37 37 37 37 37 36 35 34 34 35 36 37 39
81 83 83 82 81 79 76 72 66 62 59 56 52 49 47 45 44 43 41 39 36 35 36 35 33 34 34 35 35 35 34 33 32 31 32 33 34 35
83 82 82 79 76 72 68 63 58 54 51 49 46 45 43 42 41 40 38 36 34 32 32 32 31 32 31 31 33 33 32 32 31 30 30 31 32 32
82 80 76 73 68 64 60 56 52 49 46 44 42 41 40 39 38 38 36 35 33 31 31 31 30 30 30 29 31 31 30 30 29 29 29 29 30 31
79 74 70 65 60 56 53 50 48 45 43 41 39 37 37 36 35 35 34 33 32 31 30 30 29 29 29 29 29 30 31 30 29 29 29 29 29 30
73 68 62 57 53 50 48 46 44 42 41 39 37 36 35 34 33 32 32 31 31 30 29 29 28 28 28 28 29 30 30 30 30 30 30 29 29 29
66 61 55 51 48 46 43 42 41 40 38 37 35 33 32 31 30 30 30 29 29 28 29 29 28 28 28 28 29 30 30 30 31 30 30 29 29 29
59 53 49 45 43 41 40 39 38 37 36 35 33 31 30 29 29 28 28 28 27 27 28 29 29 29 28 28 29 29 29 30 30 30 30 29 29 29
53 47 43 41 39 38 37 36 35 35 34 32 31 29 28 28 28 27 27 27 27 28 28 29 29 29 28 28 28 28 28 28 29 29 29 29 29 29
46 43 40 38 36 35 34 34 33 33 32 30 29 28 28 27 27 27 27 27 27 27 27 28 28 28 27 27 27 27 27 28 28 28 28 29 29 29
42 39 37 35 34 33 33 33 32 31 30 29 28 28 27 27 27 27 27 26 26 26 26 26 26 26 25 25 25 26 27 27 27 27 27 28 29 29
37 36 34 33 33 33 32 31 30 29 29 28 27 27 26 26 26 26 26 25 25 25 25 25 25 24 24 24 24 25 25 25 25 26 26 27 27 28
35 33 32 32 32 32 31 30 29 28 27 27 26 26 25 25 25 25 25 25 24 24 24 25 25 24 24 24 24 24 24 24 24 24 25 25 26 27
33 31 31 31 31 30 29 28 27 26 26 25 25 25 25 25 25 25 25 24 24 24 24 25 25 25 25 25 24 24 25 25 25 25 25 26 26 27

GEFSNE_500_meanwind_096.txt.gz
Wind_Speed
53 54 54 56 57 59 60 62 63 63 62 61 62 63 64 65 67 68 69 70 71 72 73 74 75 76 77 78 78 79 79 80 80 81 82 83 83 84
54 55 56 57 58 60 61 63 65 66 67 66 66 67 68 69 70 70 71 71 72 73 74 75 76 77 78 78 78 79 79 79 79 79 79 79 79 80
56 57 58 59 60 61 63 64 65 67 68 68 70 71 72 73 73 73 73 74 75 76 76 77 77 78 78 78 78 77 77 76 75 75 74 74 74 74
57 58 59 60 61 62 63 65 66 69 71 71 72 73 75 76 77 77 78 79 79 79 79 79 79 78 77 76 74 73 72 71 70 69 69 68 68 68
58 59 60 61 62 63 65 67 69 71 73 75 75 76 77 79 80 81 82 82 82 81 80 79 77 75 73 71 69 67 66 65 63 63 62 62 62 62
59 60 61 62 64 66 68 70 72 74 76 78 78 79 80 81 83 83 82 80 79 78 76 74 71 69 66 64 61 60 58 57 55 55 54 54 53 53
60 61 63 65 67 69 72 74 76 79 80 81 81 81 81 82 82 81 79 76 73 70 68 65 63 60 57 55 53 51 49 48 47 46 45 45 45 45
62 64 66 69 71 73 76 78 81 83 84 84 83 82 81 80 78 75 72 69 64 60 59 55 54 51 49 47 45 44 42 41 40 40 39 39 39 40
66 68 70 73 75 78 80 82 83 85 85 85 83 80 77 74 71 67 64 60 55 52 51 47 46 45 44 43 41 40 38 37 36 35 35 35 35 36
70 72 75 77 80 83 84 85 84 83 82 81 78 74 70 67 63 60 56 52 48 46 45 42 40 40 39 39 38 36 35 34 33 32 32 32 33 34
73 76 80 82 84 87 87 86 83 79 77 75 72 67 63 60 57 53 50 47 43 41 40 38 37 36 35 35 34 34 32 31 31 30 29 29 30 30
78 81 84 87 87 87 86 83 79 74 71 67 63 59 56 53 50 48 45 43 40 37 36 36 34 33 31 31 31 31 31 30 29 28 28 27 27 27
83 84 86 87 86 83 81 78 74 70 65 60 55 51 49 46 44 43 41 40 37 35 34 33 31 30 29 28 29 30 29 29 28 27 26 26 26 26
86 86 86 84 81 78 75 72 68 63 58 53 48 45 42 41 39 38 37 36 35 33 31 30 29 28 27 26 26 27 28 27 27 26 26 26 26 25
87 86 83 79 76 72 68 64 60 55 50 46 42 39 38 37 35 34 34 33 32 30 29 28 27 26 25 24 24 25 26 26 26 25 25 25 26 25
85 81 76 72 68 63 59 55 51 47 44 40 37 35 34 34 33 32 31 30 29 28 28 26 25 24 24 24 24 24 24 24 24 24 24 24 25 25
80 74 69 64 59 54 51 47 44 41 38 36 34 32 31 31 30 29 28 27 26 26 26 25 24 23 23 23 23 23 23 23 24 24 24 24 24 25
73 67 62 57 53 48 44 41 38 36 34 33 32 31 29 29 28 28 27 26 25 24 24 24 23 23 23 23 23 22 22 23 23 23 23 23 24 24
65 60 56 52 48 43 40 36 33 32 31 30 29 29 28 27 26 26 25 24 23 23 23 23 22 22 22 23 23 22 22 23 23 23 23 23 23 23
59 56 52 47 43 40 36 33 30 29 29 29 28 27 27 25 24 24 23 23 22 22 22 22 22 21 21 21 21 21 21 21 22 22 21 21 21 21
54 51 47 43 40 36 33 30 28 28 28 28 27 26 25 24 23 23 22 22 21 21 21 21 21 20 20 20 20 20 20 20 20 20 20 20 20 20
50 46 42 39 36 33 31 28 27 27 27 27 26 25 24 22 22 21 21 20 20 20 20 20 20 19 19 19 19 20 19 19 19 19 19 19 18 18
45 41 38 35 33 31 29 28 27 27 26 26 25 24 23 22 21 20 20 20 20 20 20 20 20 19 19 18 18 19 19 19 19 19 19 19 18 18

GEFSNE_500_meanwind_102.txt.gz
Wind_Speed
50 50 51 51 51 52 52 53 53 53 52 52 54 55 57 58 59 61 62 63 64 66 67 69 70 71 72 73 73 73 74 74 74 74 74 74 74 74
51 51 52 52 52 53 53 54 55 56 56 56 57 58 59 60 61 63 64 66 67 69 70 72 73 74 75 75 76 76 76 76 77 77 77 77 76 76
51 52 52 52 53 54 54 55 56 58 58 58 60 61 63 64 65 67 68 70 71 73 74 76 76 77 78 78 78 78 79 79 79 78 78 78 78 78
52 52 52 53 54 55 56 57 58 60 61 61 63 65 66 68 70 71 73 75 77 78 79 80 80 80 80 80 80 80 79 79 78 78 78 78 78 78
52 53 54 55 55 56 58 59 61 62 64 65 67 69 71 73 75 76 78 79 81 81 82 82 82 81 80 79 78 77 76 75 75 74 74 74 74 74
53 54 55 56 57 59 60 62 64 65 67 69 71 73 75 77 79 80 81 81 81 81 81 80 79 78 76 75 74 73 72 70 69 68 67 67 67 67
55 56 57 58 60 62 63 65 67 69 71 74 75 77 78 80 82 83 83 81 80 79 77 75 74 72 71 69 68 66 65 63 61 60 58 58 57 57
56 58 59 61 63 64 66 69 71 74 76 79 80 81 82 83 83 83 82 79 75 73 72 69 67 65 64 61 59 58 56 54 52 50 49 48 47 47
59 61 62 64 66 68 70 72 74 77 80 82 83 83 83 83 83 80 77 74 70 66 64 61 59 57 55 53 51 49 47 46 44 43 42 41 40 40
62 64 65 67 70 72 74 76 78 80 81 83 83 83 82 80 78 75 71 67 62 58 56 53 49 48 46 44 43 42 40 39 38 37 36 35 35 34
65 67 69 71 73 76 78 79 80 81 81 81 81 80 77 74 71 67 62 58 53 48 47 45 42 41 39 38 36 36 35 33 31 31 30 30 30 31
68 70 72 73 76 78 80 81 81 80 79 78 76 72 69 65 61 57 54 50 46 41 39 38 36 35 33 32 31 31 30 28 27 26 26 27 27 27
71 72 74 76 78 79 80 80 79 78 76 73 69 65 61 56 52 49 47 44 39 35 33 33 31 30 28 27 27 27 26 25 24 23 23 23 24 24
74 75 77 78 78 78 78 77 76 74 71 67 62 58 53 48 45 43 40 37 34 31 29 28 27 26 24 23 23 23 23 22 22 21 20 20 21 21
77 78 78 78 78 76 75 74 72 69 65 60 55 50 46 43 41 38 35 33 30 28 27 25 24 23 21 21 21 21 21 20 20 19 19 19 19 20
79 79 78 77 75 73 71 69 66 62 57 53 48 45 42 39 36 34 31 29 27 26 24 23 22 21 20 19 19 18 18 18 18 18 18 18 18 18
80 79 77 74 72 69 66 62 59 55 51 47 44 41 38 35 32 30 28 26 24 23 22 21 20 19 18 17 17 17 16 16 16 16 17 17 17 17
79 76 73 70 67 63 59 55 52 49 46 43 40 37 33 30 28 27 25 24 22 21 20 19 18 17 17 16 16 16 16 16 16 16 16 15 15 16
75 71 68 64 60 56 53 50 47 44 42 39 36 32 29 27 25 24 23 22 20 19 19 18 17 16 16 15 15 15 15 15 15 15 15 15 15 15
70 66 62 59 55 52 49 46 43 40 38 34 31 28 26 25 23 22 21 20 19 18 17 16 15 15 15 14 14 14 14 14 14 14 14 14 14 15
64 61 58 54 51 48 45 41 38 36 33 30 28 26 25 23 22 21 20 18 18 17 16 15 14 14 14 14 14 13 13 13 13 13 13 13 13 14
60 56 53 50 47 43 40 37 34 32 30 28 26 24 23 22 20 19 18 17 17 16 15 15 14 14 14 14 14 13 13 12 12 12 12 12 13 13
55 51 48 45 42 39 36 33 32 30 28 26 25 23 22 21 19 18 18 17 16 15 15 14 14 13 13 13 13 13 13 12 12 12 12 12 12 12

GEFSNE_500_meanwind_108.txt.gz
Wind_Speed
46 46 47 47 47 48 48 48 48 47 46 47 48 49 50 51 53 53 55 56 57 58 60 61 63 64 65 66 67 68 69 70 71 72 72 72 72 72
47 47 47 47 48 48 48 49 49 49 48 48 50 51 52 53 55 56 57 59 60 62 63 65 67 68 70 71 72 73 74 75 76 76 77 77 77 77
47 48 48 48 48 49 49 50 51 51 51 51 53 54 55 57 58 60 61 62 64 66 68 69 71 73 74 76 77 78 79 79 80 80 80 80 81 81
48 48 48 49 50 50 51 51 52 54 55 55 56 57 59 61 62 63 64 66 68 70 72 74 76 77 79 80 81 82 82 83 83 83 83 83 82 82
48 49 50 50 51 52 53 54 55 57 58 58 59 60 62 64 65 67 69 71 73 75 77 78 79 80 81 82 83 83 83 82 82 81 80 79 78 77
49 50 51 52 53 54 55 57 58 59 60 61 62 63 65 67 70 72 73 74 76 77 79 79 80 80 80 80 80 79 78 76 75 74 73 72 72 71
51 52 53 54 55 57 58 59 60 62 63 65 66 67 69 71 74 75 76 76 76 77 77 77 78 76 75 74 73 71 69 67 65 64 63 62 61 60
52 54 55 56 57 59 60 62 64 65 67 68 69 71 73 75 76 76 77 76 75 74 75 72 72 70 68 65 62 59 57 55 53 51 50 50 50 50
54 55 56 58 60 62 63 65 66 67 70 72 73 74 75 75 76 76 76 75 73 71 70 67 64 62 59 56 54 51 49 46 43 41 41 41 41 41
56 57 59 61 63 65 66 67 68 70 72 74 75 75 75 76 76 75 74 72 68 66 65 60 56 53 51 49 46 43 40 38 36 35 34 34 34 34
58 60 62 64 66 68 69 70 71 72 74 75 76 76 75 75 73 72 70 67 63 58 56 54 49 46 42 39 37 35 33 32 31 29 28 28 28 27
60 63 65 67 69 70 72 74 75 75 75 75 75 74 73 70 68 67 65 62 58 52 48 47 44 41 36 32 32 31 30 28 26 25 24 23 23 23
63 66 68 70 71 73 75 76 77 76 75 74 72 70 67 65 63 60 58 55 51 46 44 42 39 36 33 28 28 28 26 24 22 21 20 20 19 19
67 69 71 72 73 74 75 76 76 75 73 71 68 65 62 59 56 54 52 49 45 42 40 38 35 32 29 26 24 23 21 19 19 18 17 16 16 16
70 72 73 74 74 75 75 74 73 72 70 67 63 60 57 54 51 49 46 43 40 38 36 34 30 28 25 23 20 19 17 17 17 16 15 14 14 13
73 74 74 74 74 74 73 72 70 68 65 61 58 55 53 50 47 44 41 38 35 33 32 29 27 24 21 19 17 16 15 15 15 14 13 12 11 11
75 75 74 74 73 72 70 68 66 62 59 56 54 51 48 45 42 39 36 34 31 29 28 26 24 21 19 17 15 14 13 13 12 11 11 10 10 10
75 75 74 72 70 69 67 63 60 57 54 52 49 46 43 40 37 35 32 30 27 26 24 23 21 18 16 15 14 13 12 11 10 10 10 9 9 9
74 73 71 69 67 65 61 58 55 52 50 47 44 42 39 36 33 31 29 26 24 23 22 20 18 15 14 13 13 12 10 10 10 9 9 9 9 9
72 70 67 65 63 60 56 54 51 49 46 43 40 37 35 32 29 27 25 23 22 21 19 17 15 14 13 12 12 11 10 9 9 9 9 9 9 9
67 65 63 61 58 55 53 51 48 45 42 39 36 33 31 28 26 24 22 21 20 19 17 15 13 12 12 11 10 10 9 8 8 8 8 8 8 8
63 61 59 57 54 51 49 47 44 40 37 34 32 29 27 24 22 21 20 19 18 16 15 13 12 11 10 10 9 9 9 8 8 8 8 7 7 7
59 57 54 51 49 47 45 41 38 35 32 30 27 25 23 21 20 19 18 17 16 15 13 12 11 10 10 9 9 9 8 8 7 7 7 7 7 6

GEFSNE_500_meanwind_114.txt.gz
Wind_Speed
42 42 43 43 44 45 45 46 46 45 45 45 47 48 49 49 50 51 52 54 55 56 57 58 59 60 61 62 63 64 65 66 67 68 69 70 71 72
43 43 43 44 45 46 47 47 47 47 47 47 48 49 50 51 53 54 55 56 58 59 60 61 63 64 65 66 67 69 70 71 72 74 74 75 76 77
43 43 44 46 47 48 48 48 48 49 49 49 50 52 53 54 55 57 58 59 60 62 64 65 66 68 69 71 73 74 76 77 78 79 79 80 80 81
43 44 46 47 47 48 49 49 50 50 51 51 53 54 55 57 58 59 60 62 64 66 67 69 70 72 74 76 77 79 80 80 80 81 81 82 83 83
44 45 46 47 48 49 50 50 51 53 54 55 55 57 58 59 60 62 64 66 67 69 70 72 73 75 76 78 78 78 79 79 79 79 79 80 81 81
45 46 47 49 50 50 51 52 54 55 56 57 58 59 61 63 65 66 67 69 70 71 73 74 76 77 77 77 76 76 75 74 74 74 74 73 73 73
46 47 49 50 51 52 53 54 56 57 59 60 61 63 65 67 69 70 71 71 71 73 75 76 77 76 75 74 72 71 70 69 68 67 65 64 63 62
47 49 50 52 52 54 55 56 58 60 61 63 65 67 69 71 72 72 73 73 73 74 75 74 73 71 70 68 67 67 65 64 61 59 57 55 54 52
49 50 52 53 54 55 57 59 61 63 66 68 69 71 73 73 74 74 75 75 75 74 73 70 68 66 64 64 63 62 59 56 53 51 49 46 44 42
50 52 53 54 56 58 59 61 63 66 68 71 72 73 74 74 75 75 75 74 72 70 69 65 62 61 60 59 57 55 51 48 46 44 40 38 36 34
51 53 54 56 59 61 63 64 66 68 70 72 73 74 74 75 75 75 73 72 68 66 64 61 58 55 53 51 49 48 45 42 39 36 33 32 31 29
52 54 57 59 61 63 65 67 69 70 71 72 73 74 74 74 73 72 71 68 65 61 58 55 52 50 45 43 44 42 39 36 33 31 29 28 26 25
54 56 59 61 63 66 68 70 71 72 73 73 73 73 71 70 69 68 65 63 59 55 53 49 46 45 42 38 37 36 33 30 28 26 25 24 23 21
56 59 61 64 66 68 70 71 73 73 73 73 71 69 67 65 64 62 59 57 54 50 47 45 42 40 37 34 31 30 28 26 24 22 21 20 19 17
59 61 63 66 68 70 71 72 73 73 73 71 67 64 63 61 59 57 54 51 48 45 42 40 38 35 32 29 27 26 24 22 21 20 18 17 15 14
61 63 65 68 70 71 71 72 73 72 69 66 63 61 59 57 54 52 49 46 43 40 38 36 33 30 28 26 23 22 20 19 18 17 15 14 13 12
63 65 67 69 69 70 71 71 70 67 64 62 60 58 55 53 50 48 44 41 38 36 34 32 29 27 25 22 20 19 17 16 15 14 12 11 11 10
65 67 68 69 69 70 69 67 64 61 60 58 56 53 50 48 46 43 39 36 34 32 30 28 26 24 21 19 18 16 14 13 12 11 10 9 8 8
67 68 69 69 68 67 64 61 58 57 55 53 51 48 46 43 40 37 34 32 30 28 26 24 22 20 18 17 15 13 12 10 9 9 8 7 7 6
67 67 67 66 64 61 58 56 54 52 51 48 46 44 42 39 35 33 31 28 26 23 22 20 18 16 15 14 13 11 10 9 8 8 7 6 6 5
66 65 63 61 58 55 54 53 50 48 46 44 42 40 37 34 32 29 27 24 21 20 18 17 15 14 13 12 11 9 8 7 7 6 6 5 5 4
63 61 58 56 54 52 51 49 46 44 42 41 39 36 33 31 28 25 23 20 18 17 15 14 13 12 11 10 9 8 7 6 5 5 5 4 4 4
59 57 54 52 51 49 47 44 42 41 39 37 35 32 30 27 24 21 19 17 15 14 13 12 11 10 9 8 7 6 6 5 4 4 4 3 3 3

GEFSNE_500_meanwind_120.txt.gz
Wind_Speed
40 41 41 42 43 44 44 44 44 45 45 45 46 46 47 47 48 48 49 49 50 51 52 53 54 54 55 56 57 58 59 61 62 63 63 64 65 66
41 41 42 42 43 44 44 45 46 47 47 46 47 48 49 49 50 50 51 52 53 54 55 56 57 58 59 60 62 63 64 66 66 67 68 69 70 71
40 41 42 43 44 45 46 47 48 48 48 48 49 50 51 52 52 53 54 55 56 57 59 60 61 63 64 65 66 68 69 69 70 71 73 74 75 76
41 41 42 44 45 46 47 48 49 50 50 50 51 52 53 54 55 56 57 58 60 61 63 64 65 66 68 69 70 71 72 73 74 75 76 76 77 76
41 42 43 44 45 47 48 49 51 51 52 52 53 54 56 57 58 59 61 62 63 64 65 66 68 69 71 72 73 73 73 74 74 74 74 73 72 72
41 43 44 45 46 48 49 50 51 52 53 54 56 57 58 60 62 63 63 64 64 66 67 69 70 72 73 73 73 73 73 72 71 70 69 68 67 66
42 44 45 46 47 49 50 51 53 54 55 57 58 60 62 63 64 65 65 65 66 68 69 71 72 73 73 73 72 71 70 69 67 65 64 63 61 60
43 44 46 47 48 50 51 53 54 56 58 59 61 63 64 65 66 67 68 69 69 70 71 71 72 72 71 70 69 67 66 64 61 59 57 56 55 54
43 45 47 48 49 51 52 54 56 58 60 62 63 65 66 67 69 69 70 71 71 72 73 71 71 69 67 66 64 62 60 58 55 54 52 52 51 49
45 46 47 49 50 52 54 56 58 60 62 64 66 68 69 70 71 72 72 72 72 73 72 70 66 64 62 61 60 57 55 52 50 48 47 46 43 40
45 47 48 50 52 54 56 58 60 62 64 66 68 69 70 72 72 73 73 73 71 69 67 64 60 58 56 55 54 52 49 47 44 43 41 38 36 34
46 47 49 51 53 56 58 59 61 63 66 68 69 70 71 72 72 72 72 70 67 63 60 58 56 54 51 49 49 47 45 42 40 37 35 33 31 29
46 48 50 52 55 57 59 61 63 65 67 69 70 71 71 71 70 69 67 65 62 58 57 55 53 51 48 45 43 42 40 37 35 32 31 29 27 24
47 49 51 53 56 58 60 62 64 66 68 68 69 69 68 67 65 64 62 60 58 56 54 52 49 46 44 41 38 36 35 33 30 28 26 24 22 21
48 51 53 54 57 59 61 63 65 67 67 67 66 66 64 62 61 60 59 57 55 53 50 47 45 42 39 36 33 32 30 28 26 24 22 21 20 18
50 52 53 56 58 60 62 64 66 66 65 65 64 62 60 59 58 57 55 53 50 48 45 42 40 37 34 32 30 28 25 23 22 21 19 18 17 15
51 53 55 57 59 61 63 65 65 64 64 63 61 59 58 56 54 52 50 48 45 42 40 38 35 32 30 28 26 23 21 19 18 17 16 15 13 11
52 54 56 58 60 62 63 63 63 62 61 60 58 56 54 51 49 48 46 44 41 39 36 33 31 29 27 24 22 19 17 16 15 14 13 11 10 9
53 55 58 60 61 62 62 62 61 60 59 57 54 52 50 48 47 45 43 41 38 35 32 29 27 25 23 20 17 15 13 12 12 11 10 9 8 7
55 57 59 60 61 61 61 61 59 57 55 52 50 48 47 46 45 43 40 37 34 31 29 26 24 22 18 16 14 12 11 11 10 10 9 8 7 6
56 58 59 60 60 60 60 58 56 53 51 49 47 46 45 44 41 38 35 33 31 28 25 23 20 17 14 12 11 10 10 10 9 8 7 6 5 4
57 58 59 59 58 57 56 55 52 49 47 45 44 43 41 39 36 34 32 30 27 25 22 19 16 13 11 9 8 9 9 9 8 6 5 4 3 3
58 58 58 57 56 55 53 51 48 45 43 42 40 39 37 35 33 30 28 26 23 20 17 14 12 10 8 7 7 7 7 7 6 4 3 3 3 3

GEFSNE_500_meanwind_126.txt.gz
Wind_Speed
36 36 36 37 37 38 38 40 41 42 42 43 44 45 46 48 48 49 49 50 50 51 52 53 54 55 56 56 57 58 58 59 60 60 61 61 62 62
36 36 36 37 37 37 39 40 42 43 44 45 46 47 48 49 50 51 51 52 53 54 55 56 57 58 59 60 60 61 61 62 63 63 64 64 65 66
36 36 36 37 37 38 40 41 43 44 45 46 48 49 50 52 52 53 54 55 56 58 59 59 60 61 62 63 63 63 64 65 65 66 67 68 68 69
36 36 36 37 38 39 41 43 44 45 47 48 50 51 52 54 55 56 57 58 59 60 61 62 63 64 64 65 65 66 67 67 68 68 69 69 70 69
36 36 37 38 39 41 42 44 45 47 48 50 51 53 54 56 57 58 59 61 61 62 63 64 65 65 66 67 68 68 68 68 68 68 68 68 68 67
36 37 38 39 41 42 43 45 47 48 50 51 53 54 56 58 59 60 61 63 63 65 65 66 66 67 68 68 68 68 68 68 67 67 66 66 65 64
37 37 38 40 41 43 44 46 48 50 51 53 55 57 58 60 61 63 64 65 65 66 66 67 68 68 69 68 68 68 67 66 65 63 62 61 60 59
37 38 39 40 42 44 46 48 49 51 53 55 57 58 60 62 64 65 65 66 66 66 66 67 68 68 68 67 66 65 63 62 60 59 57 56 54 53
37 38 39 41 43 45 47 49 51 53 55 56 58 60 62 63 65 65 65 65 66 67 68 67 67 66 65 64 63 61 59 58 56 54 53 51 49 48
37 39 40 42 44 46 47 49 52 54 55 58 60 62 63 64 65 65 65 66 67 67 67 66 64 63 62 61 59 58 56 54 52 49 47 46 43 42
38 39 41 42 44 46 48 50 53 54 57 59 61 62 63 64 65 65 66 66 65 65 65 64 62 61 59 57 56 54 52 49 46 43 42 39 38 37
38 40 41 43 45 47 49 52 53 56 58 60 61 63 64 65 65 65 65 65 64 63 62 61 59 57 54 52 51 49 46 43 41 39 37 35 33 31
39 40 42 44 46 49 51 52 55 57 59 61 62 63 64 64 64 64 63 63 62 61 59 57 54 53 51 49 46 44 41 39 37 35 33 31 29 27
39 41 43 45 47 49 51 54 56 59 60 62 63 63 64 63 62 62 61 60 59 57 54 53 51 50 48 45 41 38 36 35 32 30 28 26 25 23
40 42 44 46 48 50 52 55 57 59 61 61 62 63 63 62 60 59 58 58 56 53 51 50 49 46 43 39 36 34 32 30 28 26 24 22 21 18
40 43 45 47 49 51 53 56 57 59 60 61 62 62 61 59 58 57 56 54 52 50 49 47 45 42 38 34 32 30 28 27 25 22 21 19 17 16
41 43 45 47 49 52 54 56 58 59 60 60 60 60 58 56 55 54 53 50 49 47 45 43 40 37 33 31 29 27 25 23 21 19 18 16 15 14
41 44 46 48 50 52 55 58 59 59 59 59 58 56 55 53 53 52 50 47 45 43 41 38 35 32 31 29 26 24 22 19 18 17 15 14 13 12
42 44 46 49 51 54 57 59 58 57 57 56 55 54 53 51 50 48 45 43 41 39 37 34 31 29 27 25 23 21 18 17 15 14 13 12 11 11
42 44 47 51 53 56 58 58 57 56 55 54 53 51 49 47 46 43 40 38 36 35 33 30 28 26 23 21 19 18 16 15 14 13 12 11 11 10
44 47 50 52 54 57 58 57 55 53 53 52 50 48 45 43 41 39 37 35 34 32 30 27 25 22 20 18 17 16 15 13 12 11 10 10 9 9
46 49 51 53 55 57 57 55 53 51 50 49 47 44 42 40 38 36 35 33 32 30 26 24 21 19 17 16 15 14 13 11 10 10 9 8 7 7
47 50 52 54 55 56 55 53 50 49 48 46 43 41 38 37 36 34 33 31 29 26 23 20 18 17 16 15 14 12 10 9 9 8 8 7 6 6

GEFSNE_500_meanwind_132.txt.gz
Wind_Speed
37 37 38 38 39 39 39 40 40 40 40 41 42 43 44 45 46 48 49 51 52 54 55 56 57 57 57 58 58 59 60 60 60 61 61 62 62 63
37 37 38 39 38 39 40 40 41 41 41 41 42 44 45 47 48 50 52 53 55 57 58 59 60 60 61 61 61 60 61 61 62 63 63 64 64 64
37 37 38 38 39 39 40 40 41 42 42 43 44 45 47 49 51 52 54 55 57 59 60 61 61 62 62 61 61 62 63 64 65 66 66 65 64 64
37 38 38 38 39 39 40 40 41 42 43 44 45 47 49 51 53 54 56 58 60 61 63 63 63 63 62 63 64 64 65 66 67 66 65 64 64 63
37 37 38 38 38 39 40 40 41 43 44 45 47 49 51 53 55 57 59 61 62 63 64 64 64 64 64 65 65 66 67 67 66 65 63 63 63 63
36 37 37 37 38 38 39 40 42 43 45 46 48 51 53 55 57 59 61 62 64 64 64 64 64 64 65 66 67 67 67 66 64 62 62 61 61 60
36 36 37 37 37 38 40 41 43 44 46 48 50 52 55 57 59 61 62 63 64 64 63 63 64 64 66 66 67 66 65 63 61 60 58 57 56 55
35 35 36 37 38 39 40 41 43 45 47 49 51 54 56 58 61 63 64 65 64 63 62 62 64 65 65 65 64 63 61 59 58 56 54 53 51 49
34 35 36 37 38 39 41 42 44 46 48 51 53 55 58 60 63 64 65 64 63 62 62 63 64 64 63 61 61 60 58 56 55 53 51 49 46 44
34 35 36 37 38 40 41 43 45 48 50 52 55 57 59 62 63 64 64 62 62 63 63 63 62 61 60 59 59 57 55 53 51 48 46 44 42 40
34 35 36 37 39 40 42 44 46 49 51 53 55 58 60 62 63 62 62 61 61 62 62 61 60 59 57 56 55 53 51 49 47 45 42 40 38 36
34 35 36 38 39 41 43 45 47 49 52 54 57 59 61 62 62 62 62 61 61 60 60 60 59 56 53 52 52 51 48 46 44 41 39 37 35 33
34 35 37 38 40 42 44 46 48 50 52 55 58 61 61 61 61 61 61 60 59 59 59 58 55 54 53 52 49 47 44 42 40 37 35 33 32 29
34 35 37 39 41 43 45 47 48 51 54 57 59 61 61 60 60 60 59 58 58 57 56 55 53 52 51 49 46 42 40 38 36 33 32 30 28 26
34 36 38 40 41 43 45 47 49 53 56 58 59 59 59 58 58 58 57 56 56 54 53 52 51 49 48 46 42 39 37 35 33 30 29 27 25 23
35 37 38 40 41 43 46 48 51 54 56 57 57 57 58 57 57 56 55 54 53 52 51 50 48 46 44 42 38 36 34 32 29 28 26 24 22 21
35 37 38 40 42 44 46 49 52 54 56 56 56 57 57 56 55 55 54 52 50 49 48 47 45 43 41 39 36 34 32 29 27 25 23 22 21 20
35 37 38 40 42 44 47 50 53 54 55 55 56 56 56 54 55 54 52 50 48 46 45 43 41 40 38 36 34 31 29 27 25 22 21 20 19 18
35 36 38 40 42 45 48 51 53 55 55 55 55 55 54 53 54 52 49 46 45 43 41 40 39 38 35 33 31 28 26 24 22 21 20 19 18 17
35 36 38 41 43 47 49 52 53 54 54 54 54 53 53 52 52 49 46 43 42 40 39 38 37 34 32 30 28 25 23 22 21 20 19 18 17 16
35 37 39 41 44 47 49 51 52 53 53 52 52 52 51 51 49 46 43 41 39 38 37 36 34 32 30 28 26 23 22 21 20 19 18 17 16 15
35 37 39 42 44 47 49 50 52 52 52 51 51 50 49 48 45 43 41 38 37 36 36 34 32 30 28 25 23 21 20 20 18 18 17 16 15 14
35 37 39 42 44 47 49 50 51 51 50 50 49 47 46 44 42 40 39 37 36 36 34 33 30 28 25 23 21 20 19 18 17 17 16 15 14 13

GEFSNE_500_meanwind_138.txt.gz
Wind_Speed
36 36 36 36 37 37 38 38 38 38 39 39 40 41 42 43 45 46 47 49 51 53 56 57 59 61 61 60 60 59 59 59 59 59 59 60 60 61
36 36 36 36 37 38 38 38 39 39 39 40 41 42 43 44 46 47 49 51 53 56 58 60 61 61 60 60 60 60 60 59 60 60 60 61 61 62
36 36 36 37 37 38 38 39 39 39 40 40 42 42 43 45 47 49 51 53 55 58 60 62 62 62 61 62 61 60 60 61 61 61 61 62 62 62
36 37 37 37 37 37 38 39 39 40 41 41 42 43 44 46 48 50 52 55 57 60 62 63 62 62 62 62 61 62 62 62 62 62 62 62 61 59
37 36 36 37 37 37 38 38 39 41 41 42 42 44 45 47 49 51 54 57 60 62 63 63 63 62 62 62 62 62 62 62 62 61 60 59 57 56
37 36 36 36 37 38 37 37 39 40 41 42 43 45 47 49 51 53 56 59 61 62 63 63 62 62 63 63 63 62 62 61 60 59 57 56 54 53
36 35 35 36 36 37 37 37 39 40 41 43 44 46 48 50 52 55 57 60 61 62 62 62 62 63 63 63 62 61 60 59 58 56 54 53 52 52
35 35 35 35 36 37 37 37 38 40 42 43 45 47 49 52 54 57 58 60 61 61 61 61 62 62 61 60 59 59 58 57 55 53 52 52 51 50
34 35 35 36 36 36 36 37 39 41 42 44 46 48 51 53 56 58 59 61 61 61 60 60 61 61 59 58 57 57 56 55 53 52 51 50 49 47
34 34 34 35 36 36 37 38 40 42 43 45 48 50 52 55 57 59 60 60 60 60 60 60 60 58 57 56 56 55 54 53 51 50 49 48 46 43
34 34 34 35 35 36 37 39 41 42 44 46 49 51 54 56 58 58 58 58 58 59 60 59 58 56 55 54 54 53 52 50 49 48 46 44 42 39
33 33 33 34 35 36 38 39 41 43 45 47 50 52 54 57 58 58 57 57 58 58 58 57 56 55 54 53 52 51 50 49 47 45 43 41 39 36
32 33 34 34 35 36 37 39 41 43 45 47 50 52 55 56 57 56 55 56 57 57 56 55 54 53 52 51 50 49 49 47 45 43 40 38 36 33
32 33 33 34 35 36 37 39 42 43 45 48 50 53 55 55 55 55 55 56 56 56 56 54 53 52 51 50 48 47 46 44 41 39 37 35 33 31
32 32 33 34 35 36 37 39 41 44 46 48 51 53 54 53 54 54 55 55 55 55 55 53 52 51 50 48 46 44 42 40 37 35 34 32 30 29
31 31 32 34 35 36 38 39 41 44 46 49 50 52 52 53 53 53 54 54 55 55 54 52 51 49 47 45 43 41 38 36 35 34 32 30 29 27
31 31 33 33 35 36 37 39 42 44 46 48 50 51 52 52 52 52 52 53 54 53 53 51 49 47 44 42 40 38 36 35 34 32 31 29 27 25
30 31 31 33 34 35 37 40 42 44 46 48 49 50 51 51 50 51 52 53 53 52 50 48 46 44 42 40 38 36 34 34 33 31 29 27 25 23
29 29 30 32 33 35 37 39 41 43 45 47 48 50 50 50 50 51 52 53 52 50 48 45 42 40 38 37 36 34 33 32 30 28 26 24 23 22
27 28 30 31 33 34 36 38 40 42 45 47 48 49 50 50 50 51 51 51 50 47 45 42 39 37 36 35 33 32 31 29 27 25 24 23 22 21
26 28 29 30 32 34 35 38 40 43 45 47 48 49 49 49 49 50 50 49 47 44 41 38 36 36 35 33 32 30 28 27 25 23 22 21 20 19
26 27 28 30 31 33 35 38 41 43 46 47 48 48 48 48 48 49 48 46 44 41 38 36 35 35 33 32 30 28 26 25 23 21 20 20 19 17
25 26 28 29 31 33 36 38 41 44 46 47 48 48 48 47 47 47 45 43 41 39 37 36 34 33 32 30 28 26 24 22 20 19 19 18 17 15

GEFSNE_500_meanwind_144.txt.gz
Wind_Speed
35 35 35 35 35 36 37 38 39 39 39 40 42 43 43 44 45 45 46 48 50 52 54 56 58 59 61 62 62 61 60 59 59 58 57 57 57 58
36 35 36 35 36 36 37 38 39 40 40 41 42 43 43 45 45 46 47 49 52 54 56 58 60 61 62 62 61 60 59 58 58 58 58 58 58 58
36 36 36 36 37 37 38 39 40 41 42 42 43 43 44 45 45 47 49 51 54 56 58 60 61 62 62 61 59 58 58 58 58 58 58 59 59 58
37 36 36 37 37 38 38 39 40 41 42 42 43 43 44 45 46 48 50 53 55 57 59 61 61 61 61 60 59 58 57 58 58 59 60 59 58 57
36 36 36 37 37 38 39 40 40 42 42 42 43 43 44 46 47 49 52 54 56 58 59 60 61 60 60 59 58 57 58 59 59 59 59 58 57 56
36 36 37 37 37 38 39 40 41 41 41 42 42 43 46 47 49 50 52 55 56 58 59 60 59 59 59 59 58 58 59 59 59 59 58 57 56 55
37 37 37 37 37 38 39 39 40 40 41 42 43 45 46 47 49 51 53 55 56 58 59 59 59 59 59 58 58 58 59 59 59 58 57 57 55 54
36 35 36 37 37 37 38 39 39 40 40 41 43 45 46 48 50 52 54 55 56 57 59 59 58 58 58 58 58 58 59 59 59 58 56 56 54 52
36 35 35 36 36 37 38 38 39 40 41 42 43 45 47 49 51 53 54 55 56 58 58 57 58 59 58 58 58 58 58 58 58 57 56 54 52 50
36 35 35 35 36 37 37 38 39 40 41 42 44 46 47 50 51 53 54 56 57 58 57 58 58 59 60 58 57 58 58 58 58 56 54 52 49 46
35 34 34 35 35 36 37 38 38 39 41 42 44 45 47 49 51 53 54 55 57 57 57 58 58 58 59 58 57 57 57 57 56 54 51 48 46 43
35 34 34 35 35 36 37 37 38 39 41 42 43 45 47 49 51 52 54 55 56 56 57 58 58 58 57 57 57 57 57 56 53 50 48 45 43 41
34 34 34 35 35 36 36 37 37 39 41 42 44 45 47 48 50 52 53 55 56 56 57 57 57 57 57 56 55 56 55 53 51 48 46 43 40 39
33 34 34 34 35 36 35 36 37 38 40 42 43 45 46 48 50 52 53 54 55 56 56 56 56 56 56 54 53 53 52 50 47 44 42 40 39 38
33 33 33 34 34 33 34 35 37 38 40 41 43 44 46 48 51 52 53 54 55 55 55 56 56 56 55 53 51 49 48 46 44 41 39 38 37 35
32 32 32 32 32 32 33 35 36 38 40 41 42 44 46 49 50 51 53 53 55 55 55 55 55 55 54 51 49 47 45 43 41 39 37 36 34 32
30 30 30 30 30 32 33 34 36 37 38 39 41 44 46 48 50 51 52 53 54 54 54 54 54 53 52 50 47 46 44 41 40 38 36 34 32 30
28 28 28 28 29 30 32 33 35 36 37 39 42 44 46 49 50 51 52 53 53 53 53 52 52 51 50 48 46 44 43 41 38 36 34 32 30 28
26 26 27 28 29 30 31 32 34 35 37 39 41 44 46 48 50 50 52 52 52 52 51 50 49 48 47 46 46 43 41 39 36 34 32 30 28 26
25 26 26 27 28 29 30 31 33 35 37 39 41 44 46 48 49 50 51 51 51 51 50 49 48 47 46 45 44 42 39 36 34 32 30 28 26 24
24 24 25 26 27 28 29 30 32 34 37 39 41 44 46 48 49 50 50 51 51 49 48 46 46 45 45 44 42 40 38 35 33 30 28 26 24 22
23 23 24 24 25 27 28 30 33 35 37 39 41 43 46 48 48 49 50 50 49 47 45 44 44 44 43 42 40 38 35 34 32 29 26 24 22 21
22 22 22 24 25 27 28 31 33 35 37 39 41 43 46 47 47 48 49 49 46 44 43 43 43 43 42 41 39 36 34 32 30 28 25 22 21 20

GEFSNE_500_meanwind_150.txt.gz
Wind_Speed
36 35 35 35 34 34 35 35 36 36 36 38 39 40 41 43 44 44 45 46 47 48 49 51 52 53 54 55 57 58 59 57 56 56 55 55 55 55
36 36 35 35 35 35 36 36 36 37 37 39 40 40 41 43 44 45 45 46 47 49 50 52 54 55 55 56 58 59 59 57 56 56 56 56 56 56
36 36 35 35 36 36 36 36 37 38 38 39 40 40 41 43 44 45 45 46 48 50 51 53 54 55 56 57 59 59 58 57 57 57 57 57 58 58
36 36 36 36 36 36 36 36 37 38 38 39 39 40 42 43 44 44 46 47 49 50 52 54 55 56 57 58 59 59 58 58 58 58 59 59 59 59
36 36 36 36 35 36 37 37 38 38 38 39 40 41 42 43 44 45 46 48 49 50 53 54 55 56 57 58 59 59 59 59 59 59 59 60 60 60
37 35 35 35 36 36 37 38 38 38 39 40 40 41 42 43 44 45 47 48 49 51 53 55 56 57 57 58 59 60 60 59 60 60 60 60 59 59
36 35 35 35 36 37 37 37 38 38 39 40 40 41 42 43 44 45 46 48 50 53 54 56 56 56 57 58 59 60 60 60 60 60 60 59 58 57
35 35 36 37 36 36 37 37 38 38 38 40 40 40 41 42 43 45 47 49 51 53 55 55 55 56 57 58 60 60 60 60 60 60 59 57 56 55
35 36 36 36 36 36 36 37 37 37 38 39 39 40 41 42 44 46 47 49 51 52 54 55 56 57 58 59 60 60 60 59 59 58 57 56 54 53
36 36 36 36 35 36 36 36 36 36 37 37 38 39 40 42 44 46 47 49 50 52 54 55 56 57 58 59 59 59 59 58 57 55 54 53 51 49
36 36 36 35 34 35 35 35 35 36 37 37 38 39 40 42 43 45 47 48 50 52 54 55 56 57 58 58 58 58 58 57 55 53 51 50 48 46
36 35 34 34 34 34 34 35 36 36 36 36 38 39 40 41 42 44 46 48 51 53 54 55 56 56 56 57 58 57 56 54 52 50 48 47 46 45
36 35 34 34 34 33 34 35 35 35 36 37 38 39 40 40 42 44 47 49 52 54 55 55 55 56 56 56 56 55 54 51 50 48 47 46 44 43
34 33 34 34 33 33 33 34 34 35 36 36 37 38 39 40 42 45 47 51 53 54 54 54 55 55 55 54 53 53 52 50 48 46 46 44 43 40
33 33 33 33 32 32 33 33 33 34 35 36 36 37 39 41 43 45 48 51 53 54 53 54 54 54 54 53 51 50 49 48 47 45 45 44 41 38
33 33 32 32 32 32 32 32 33 33 33 34 35 37 39 42 44 46 49 51 52 52 52 53 53 52 52 51 50 48 47 46 45 45 44 42 39 35
32 31 30 30 31 31 32 31 31 31 32 33 34 36 39 42 44 47 48 50 50 50 51 51 51 51 51 49 48 48 46 45 45 44 41 39 35 32
30 29 29 29 29 30 30 30 30 31 31 32 35 38 40 42 44 46 47 48 49 49 49 49 50 51 50 48 47 46 46 45 44 42 39 36 33 30
28 28 28 28 28 28 28 28 29 29 31 33 36 38 40 42 44 45 46 47 48 48 47 48 49 49 48 46 45 44 44 44 43 40 37 34 31 29
28 27 27 26 26 26 26 27 28 29 32 34 36 38 40 41 43 44 45 45 46 46 47 48 49 48 46 44 44 44 43 42 41 38 36 33 30 29
26 25 24 24 24 25 26 26 27 29 31 33 36 38 39 41 42 43 43 44 45 45 46 47 48 46 44 43 43 43 42 40 39 37 34 31 29 27
25 24 23 23 24 24 25 26 27 29 31 33 35 37 38 40 41 41 42 43 44 45 46 46 46 44 43 42 42 42 42 41 39 36 32 29 27 25
24 23 23 23 23 24 25 26 27 29 31 33 34 36 37 38 39 40 41 42 43 44 44 45 44 43 42 42 42 42 41 40 38 34 30 27 24 22

GEFSNE_500_meanwind_156.txt.gz
Wind_Speed
38 37 36 36 35 34 34 35 35 35 34 35 36 37 38 39 40 41 42 43 45 46 48 49 50 52 52 53 55 57 59 60 61 61 61 61 60 60
38 37 36 36 35 34 35 35 35 34 34 35 37 37 38 39 41 41 42 44 45 47 48 49 51 52 53 54 56 58 60 61 61 61 62 61 61 61
37 36 36 35 35 34 34 34 34 34 34 35 36 37 38 39 40 41 43 45 46 47 48 50 51 52 54 56 58 59 60 60 61 62 62 62 61 61
37 37 36 35 35 35 34 33 34 34 34 35 36 37 38 39 40 42 44 45 45 47 48 50 51 53 55 57 58 59 59 60 61 63 62 62 61 60
37 36 36 35 34 34 33 33 34 34 35 36 37 37 38 39 41 42 44 44 45 47 48 50 52 54 56 57 58 59 60 61 62 63 62 61 59 58
36 35 35 34 33 33 33 33 32 33 35 35 36 37 38 40 41 43 43 44 45 47 49 50 52 54 55 57 58 59 60 61 62 62 60 59 57 56
35 34 33 33 33 33 32 32 32 33 35 35 35 37 39 41 42 42 43 44 45 47 49 50 52 54 55 56 58 59 60 61 61 60 58 56 55 54
34 33 33 33 32 32 31 31 32 34 34 35 35 37 39 40 41 42 43 44 45 47 48 50 52 53 54 56 58 59 60 60 60 58 56 55 53 53
34 33 33 33 32 31 31 32 33 34 34 35 36 37 38 39 41 41 42 44 45 46 48 50 51 53 55 57 58 59 59 59 58 56 54 53 52 52
35 34 33 31 31 31 32 32 32 32 33 34 36 37 38 38 39 41 42 43 45 46 48 50 51 54 56 57 58 58 58 57 55 54 53 52 52 51
34 33 32 31 30 31 32 32 31 32 33 34 35 36 37 38 39 41 42 43 44 46 48 50 51 53 55 56 57 57 56 55 54 53 53 52 51 50
35 34 32 31 31 31 31 31 30 31 33 34 35 36 37 38 40 41 42 43 45 46 48 50 52 53 53 54 56 55 54 54 53 53 52 51 49 48
34 33 32 32 32 30 30 30 30 32 32 33 34 35 36 37 39 40 41 43 45 46 48 50 51 52 53 53 54 54 53 53 53 52 50 49 48 47
34 33 33 32 31 30 29 30 30 31 31 32 33 34 36 38 39 40 41 43 45 47 48 50 51 51 51 51 52 53 54 53 52 50 49 48 47 46
33 32 32 31 30 29 29 29 30 30 31 31 33 34 36 37 39 40 41 44 45 46 47 49 50 50 50 51 52 51 52 52 51 49 48 47 46 44
33 32 30 29 29 29 29 29 29 30 30 32 32 33 35 37 38 39 41 43 44 45 47 48 49 49 50 51 52 52 51 51 50 48 46 46 44 43
31 30 28 27 27 29 29 28 28 29 30 31 32 33 35 36 37 39 40 42 43 44 46 47 48 49 51 51 52 52 51 51 49 46 45 45 44 42
29 29 28 27 27 27 27 27 27 29 29 30 31 32 34 36 37 38 39 41 43 44 45 46 47 49 50 52 52 51 50 49 47 46 45 44 42 40
27 26 25 25 25 25 25 27 28 28 28 29 30 32 33 35 36 37 39 40 42 43 44 46 47 47 49 50 50 49 48 48 47 46 44 42 40 38
27 26 25 25 24 24 25 26 27 27 28 29 30 31 32 34 36 37 38 40 41 42 44 45 46 47 48 48 48 47 47 47 46 45 43 41 38 35
27 26 25 24 23 24 26 26 26 27 28 28 29 30 32 34 36 37 38 39 40 42 43 45 46 47 47 47 45 46 46 46 45 43 41 38 35 32
26 25 25 25 25 25 25 25 26 26 27 27 28 30 32 34 35 36 37 38 39 41 42 44 45 46 46 45 44 44 45 46 45 42 39 36 32 28
26 25 25 24 25 25 25 26 25 25 26 27 28 30 32 34 35 35 36 37 38 40 42 43 44 45 44 43 42 43 44 44 43 40 37 33 29 26